Wetterdaten: Freitag, 18.06.2021
Datum Zeit Temp. Aussen Temp. o. S. Temp +5cm Feuchte Auss Luftdruck Regen Sonnenschein Regendauer Solar Windben Empfang
18.06.2021 00:00 26,3 C 25,0 C 22,8 C 72 % 1013,0 hPa 0,0 l/m 0 min 0 min 0 W/m 9,7 km/h (2 Bft) 100,00 %
18.06.2021 00:02 26,3 C 25,0 C 22,8 C 72 % 1013,0 hPa 0,0 l/m 0 min 0 min 0 W/m 9,7 km/h (2 Bft) 100,00 %
18.06.2021 00:04 26,3 C 25,0 C 22,8 C 72 % 1013,1 hPa 0,0 l/m 0 min 0 min 0 W/m 9,7 km/h (2 Bft) 95,74 %
18.06.2021 00:08 26,2 C 25,0 C 22,8 C 72 % 1013,0 hPa 0,0 l/m 0 min 0 min 0 W/m 12,9 km/h (3 Bft) 100,00 %
18.06.2021 00:10 26,2 C 25,0 C 22,8 C 72 % 1013,0 hPa 0,0 l/m 0 min 0 min 0 W/m 6,4 km/h (2 Bft) 97,87 %
18.06.2021 00:12 26,1 C 25,0 C 22,8 C 73 % 1013,0 hPa 0,0 l/m 0 min 0 min 0 W/m 6,4 km/h (2 Bft) 100,00 %
18.06.2021 00:14 26,1 C 25,0 C 22,8 C 72 % 1013,0 hPa 0,0 l/m 0 min 0 min 0 W/m 19,3 km/h (3 Bft) 97,87 %
18.06.2021 00:16 26,1 C 25,0 C 22,8 C 72 % 1013,0 hPa 0,0 l/m 0 min 0 min 0 W/m 12,9 km/h (3 Bft) 100,00 %
18.06.2021 00:18 26,1 C 25,0 C 22,8 C 73 % 1013,0 hPa 0,0 l/m 0 min 0 min 0 W/m 9,7 km/h (2 Bft) 100,00 %
18.06.2021 00:20 26,1 C 25,0 C 22,8 C 73 % 1013,0 hPa 0,0 l/m 0 min 0 min 0 W/m 16,1 km/h (3 Bft) 100,00 %
18.06.2021 00:22 26,1 C 25,0 C 22,8 C 73 % 1013,0 hPa 0,0 l/m 0 min 0 min 0 W/m 16,1 km/h (3 Bft) 100,00 %
18.06.2021 00:24 26,0 C 25,0 C 22,8 C 73 % 1013,0 hPa 0,0 l/m 0 min 0 min 0 W/m 6,4 km/h (2 Bft) 97,87 %
18.06.2021 00:26 26,0 C 25,0 C 22,8 C 73 % 1013,0 hPa 0,0 l/m 0 min 0 min 0 W/m 3,2 km/h (1 Bft) 97,87 %
18.06.2021 00:28 26,0 C 25,0 C 22,8 C 73 % 1013,0 hPa 0,0 l/m 0 min 0 min 0 W/m 9,7 km/h (2 Bft) 100,00 %
18.06.2021 00:30 26,0 C 25,0 C 22,8 C 73 % 1013,1 hPa 0,0 l/m 0 min 0 min 0 W/m 6,4 km/h (2 Bft) 100,00 %
18.06.2021 00:32 26,0 C 25,0 C 22,8 C 73 % 1013,1 hPa 0,0 l/m 0 min 0 min 0 W/m 9,7 km/h (2 Bft) 95,65 %
18.06.2021 00:34 25,9 C 25,0 C 22,8 C 73 % 1013,1 hPa 0,0 l/m 0 min 0 min 0 W/m 9,7 km/h (2 Bft) 100,00 %
18.06.2021 00:36 25,9 C 25,0 C 22,8 C 74 % 1013,1 hPa 0,0 l/m 0 min 0 min 0 W/m 6,4 km/h (2 Bft) 100,00 %
18.06.2021 00:38 25,9 C 25,0 C 22,8 C 74 % 1013,1 hPa 0,0 l/m 0 min 0 min 0 W/m 9,7 km/h (2 Bft) 100,00 %
18.06.2021 00:40 25,9 C 24,4 C 22,3 C 74 % 1013,1 hPa 0,0 l/m 0 min 0 min 0 W/m 12,9 km/h (3 Bft) 100,00 %
18.06.2021 00:42 25,8 C 24,4 C 22,3 C 74 % 1013,1 hPa 0,0 l/m 0 min 0 min 0 W/m 3,2 km/h (1 Bft) 95,74 %
18.06.2021 00:44 25,8 C 24,4 C 22,3 C 74 % 1013,1 hPa 0,0 l/m 0 min 0 min 0 W/m 6,4 km/h (2 Bft) 100,00 %
18.06.2021 00:46 25,8 C 24,4 C 22,3 C 75 % 1013,1 hPa 0,0 l/m 0 min 0 min 0 W/m 9,7 km/h (2 Bft) 97,87 %
18.06.2021 00:48 25,7 C 24,4 C 22,3 C 75 % 1013,1 hPa 0,0 l/m 0 min 0 min 0 W/m 16,1 km/h (3 Bft) 97,87 %
18.06.2021 00:50 25,6 C 24,4 C 22,3 C 75 % 1013,1 hPa 0,0 l/m 0 min 0 min 0 W/m 9,7 km/h (2 Bft) 97,87 %
18.06.2021 00:52 25,6 C 24,4 C 22,3 C 75 % 1013,1 hPa 0,0 l/m 0 min 0 min 0 W/m 16,1 km/h (3 Bft) 97,87 %
18.06.2021 00:54 25,6 C 24,4 C 22,3 C 75 % 1013,1 hPa 0,0 l/m 0 min 0 min 0 W/m 9,7 km/h (2 Bft) 97,87 %
18.06.2021 00:56 25,6 C 24,4 C 22,3 C 75 % 1013,1 hPa 0,0 l/m 0 min 0 min 0 W/m 9,7 km/h (2 Bft) 95,65 %
18.06.2021 00:58 25,5 C 24,4 C 22,3 C 75 % 1013,1 hPa 0,0 l/m 0 min 0 min 0 W/m 9,7 km/h (2 Bft) 97,87 %
18.06.2021 01:00 25,5 C 24,4 C 22,3 C 75 % 1013,1 hPa 0,0 l/m 0 min 0 min 0 W/m 9,7 km/h (2 Bft) 97,87 %
18.06.2021 01:02 25,4 C 24,4 C 22,3 C 75 % 1013,2 hPa 0,0 l/m 0 min 0 min 0 W/m 16,1 km/h (3 Bft) 95,74 %
18.06.2021 01:04 25,4 C 24,4 C 22,3 C 76 % 1013,2 hPa 0,0 l/m 0 min 0 min 0 W/m 19,3 km/h (3 Bft) 97,87 %
18.06.2021 01:06 25,4 C 24,4 C 22,3 C 76 % 1013,2 hPa 0,0 l/m 0 min 0 min 0 W/m 9,7 km/h (2 Bft) 97,87 %
18.06.2021 01:08 25,3 C 24,4 C 22,3 C 76 % 1013,1 hPa 0,0 l/m 0 min 0 min 0 W/m 12,9 km/h (3 Bft) 97,83 %
18.06.2021 01:10 25,3 C 23,9 C 22,3 C 76 % 1013,2 hPa 0,0 l/m 0 min 0 min 0 W/m 9,7 km/h (2 Bft) 97,87 %
18.06.2021 01:12 25,3 C 23,9 C 21,7 C 76 % 1013,2 hPa 0,0 l/m 0 min 0 min 0 W/m 6,4 km/h (2 Bft) 97,87 %
18.06.2021 01:14 25,3 C 23,9 C 21,7 C 76 % 1013,2 hPa 0,0 l/m 0 min 0 min 0 W/m 6,4 km/h (2 Bft) 97,87 %
18.06.2021 01:16 25,2 C 23,9 C 21,7 C 76 % 1013,1 hPa 0,0 l/m 0 min 0 min 0 W/m 12,9 km/h (3 Bft) 97,87 %
18.06.2021 01:18 25,1 C 23,9 C 21,7 C 76 % 1013,2 hPa 0,0 l/m 0 min 0 min 0 W/m 16,1 km/h (3 Bft) 93,62 %
18.06.2021 01:20 25,1 C 23,9 C 21,7 C 77 % 1013,2 hPa 0,0 l/m 0 min 0 min 0 W/m 16,1 km/h (3 Bft) 95,65 %
18.06.2021 01:22 25,1 C 23,9 C 21,7 C 77 % 1013,2 hPa 0,0 l/m 0 min 0 min 0 W/m 9,7 km/h (2 Bft) 95,74 %
18.06.2021 01:24 25,0 C 23,9 C 21,7 C 77 % 1013,2 hPa 0,0 l/m 0 min 0 min 0 W/m 12,9 km/h (3 Bft) 93,62 %
18.06.2021 01:26 25,0 C 23,9 C 21,7 C 77 % 1013,2 hPa 0,0 l/m 0 min 0 min 0 W/m 6,4 km/h (2 Bft) 95,74 %
18.06.2021 01:28 24,9 C 23,9 C 21,7 C 77 % 1013,2 hPa 0,0 l/m 0 min 0 min 0 W/m 6,4 km/h (2 Bft) 95,74 %
18.06.2021 01:30 24,9 C 23,9 C 21,7 C 77 % 1013,2 hPa 0,0 l/m 0 min 0 min 0 W/m 12,9 km/h (3 Bft) 95,65 %
18.06.2021 01:32 24,9 C 23,9 C 21,7 C 77 % 1013,1 hPa 0,0 l/m 0 min 0 min 0 W/m 9,7 km/h (2 Bft) 95,74 %
18.06.2021 01:34 24,8 C 23,9 C 21,7 C 77 % 1013,2 hPa 0,0 l/m 0 min 0 min 0 W/m 12,9 km/h (3 Bft) 93,62 %
18.06.2021 01:36 24,8 C 23,9 C 21,7 C 77 % 1013,2 hPa 0,0 l/m 0 min 0 min 0 W/m 6,4 km/h (2 Bft) 97,87 %
18.06.2021 01:38 24,7 C 23,3 C 21,7 C 77 % 1013,2 hPa 0,0 l/m 0 min 0 min 0 W/m 9,7 km/h (2 Bft) 97,87 %
18.06.2021 01:40 24,6 C 23,3 C 21,7 C 78 % 1013,2 hPa 0,0 l/m 0 min 0 min 0 W/m 9,7 km/h (2 Bft) 95,74 %
18.06.2021 01:42 24,6 C 23,3 C 21,7 C 77 % 1013,1 hPa 0,0 l/m 0 min 0 min 0 W/m 16,1 km/h (3 Bft) 97,83 %
18.06.2021 01:44 24,6 C 23,3 C 21,1 C 77 % 1013,2 hPa 0,0 l/m 0 min 0 min 0 W/m 6,4 km/h (2 Bft) 97,87 %
18.06.2021 01:46 24,5 C 23,3 C 21,1 C 77 % 1013,2 hPa 0,0 l/m 0 min 0 min 0 W/m 9,7 km/h (2 Bft) 93,62 %
18.06.2021 01:48 24,5 C 23,3 C 21,1 C 77 % 1013,2 hPa 0,0 l/m 0 min 0 min 0 W/m 9,7 km/h (2 Bft) 97,87 %
18.06.2021 01:50 24,5 C 23,3 C 21,1 C 77 % 1013,2 hPa 0,0 l/m 0 min 0 min 0 W/m 9,7 km/h (2 Bft) 97,87 %
18.06.2021 01:52 24,4 C 23,3 C 21,1 C 77 % 1013,2 hPa 0,0 l/m 0 min 0 min 0 W/m 6,4 km/h (2 Bft) 97,87 %
18.06.2021 01:54 24,4 C 23,3 C 21,1 C 77 % 1013,2 hPa 0,0 l/m 0 min 0 min 0 W/m 9,7 km/h (2 Bft) 97,83 %
18.06.2021 01:56 24,4 C 23,3 C 21,1 C 77 % 1013,2 hPa 0,0 l/m 0 min 0 min 0 W/m 9,7 km/h (2 Bft) 97,87 %
18.06.2021 01:58 24,4 C 23,3 C 21,1 C 77 % 1013,2 hPa 0,0 l/m 0 min 0 min 0 W/m 6,4 km/h (2 Bft) 95,74 %
18.06.2021 02:00 24,4 C 23,3 C 21,1 C 77 % 1013,2 hPa 0,0 l/m 0 min 0 min 0 W/m 9,7 km/h (2 Bft) 97,87 %
18.06.2021 02:02 24,3 C 23,3 C 21,1 C 77 % 1013,1 hPa 0,0 l/m 0 min 0 min 0 W/m 6,4 km/h (2 Bft) 100,00 %
18.06.2021 02:04 24,3 C 23,3 C 21,1 C 77 % 1013,1 hPa 0,0 l/m 0 min 0 min 0 W/m 6,4 km/h (2 Bft) 100,00 %
18.06.2021 02:06 24,3 C 23,3 C 21,1 C 77 % 1013,1 hPa 0,0 l/m 0 min 0 min 0 W/m 6,4 km/h (2 Bft) 100,00 %
18.06.2021 02:08 24,3 C 23,3 C 21,1 C 77 % 1013,1 hPa 0,0 l/m 0 min 0 min 0 W/m 6,4 km/h (2 Bft) 100,00 %
18.06.2021 02:10 24,2 C 23,3 C 21,1 C 77 % 1013,1 hPa 0,0 l/m 0 min 0 min 0 W/m 6,4 km/h (2 Bft) 100,00 %
18.06.2021 02:12 24,2 C 23,3 C 21,1 C 77 % 1013,1 hPa 0,0 l/m 0 min 0 min 0 W/m 9,7 km/h (2 Bft) 100,00 %
18.06.2021 02:14 24,1 C 23,3 C 21,1 C 77 % 1013,1 hPa 0,0 l/m 0 min 0 min 0 W/m 3,2 km/h (1 Bft) 100,00 %
18.06.2021 02:16 24,1 C 23,3 C 21,1 C 78 % 1013,1 hPa 0,0 l/m 0 min 0 min 0 W/m 9,7 km/h (2 Bft) 100,00 %
18.06.2021 02:18 24,1 C 23,3 C 21,1 C 77 % 1013,1 hPa 0,0 l/m 0 min 0 min 0 W/m 9,7 km/h (2 Bft) 100,00 %
18.06.2021 02:20 24,0 C 23,3 C 21,1 C 77 % 1013,0 hPa 0,0 l/m 0 min 0 min 0 W/m 6,4 km/h (2 Bft) 100,00 %
18.06.2021 02:22 24,0 C 23,3 C 21,1 C 77 % 1013,0 hPa 0,0 l/m 0 min 0 min 0 W/m 9,7 km/h (2 Bft) 100,00 %
18.06.2021 02:24 24,0 C 23,3 C 20,6 C 78 % 1013,0 hPa 0,0 l/m 0 min 0 min 0 W/m 3,2 km/h (1 Bft) 100,00 %
18.06.2021 02:26 24,0 C 22,8 C 20,6 C 78 % 1013,0 hPa 0,0 l/m 0 min 0 min 0 W/m 6,4 km/h (2 Bft) 97,87 %
18.06.2021 02:28 23,9 C 22,8 C 20,6 C 78 % 1013,0 hPa 0,0 l/m 0 min 0 min 0 W/m 9,7 km/h (2 Bft) 97,83 %
18.06.2021 02:30 23,9 C 22,8 C 20,6 C 78 % 1013,0 hPa 0,0 l/m 0 min 0 min 0 W/m 9,7 km/h (2 Bft) 97,87 %
18.06.2021 02:32 23,9 C 22,8 C 20,6 C 78 % 1012,9 hPa 0,0 l/m 0 min 0 min 0 W/m 6,4 km/h (2 Bft) 97,87 %
18.06.2021 02:34 23,9 C 22,8 C 20,6 C 78 % 1012,9 hPa 0,0 l/m 0 min 0 min 0 W/m 9,7 km/h (2 Bft) 95,74 %
18.06.2021 02:36 23,9 C 22,8 C 20,6 C 78 % 1012,9 hPa 0,0 l/m 0 min 0 min 0 W/m 6,4 km/h (2 Bft) 97,87 %
18.06.2021 02:38 23,8 C 22,8 C 20,6 C 79 % 1012,9 hPa 0,0 l/m 0 min 0 min 0 W/m 3,2 km/h (1 Bft) 97,87 %
18.06.2021 02:40 23,8 C 22,8 C 20,6 C 79 % 1012,8 hPa 0,0 l/m 0 min 0 min 0 W/m 6,4 km/h (2 Bft) 97,83 %
18.06.2021 02:42 23,8 C 22,8 C 20,6 C 79 % 1012,8 hPa 0,0 l/m 0 min 0 min 0 W/m 6,4 km/h (2 Bft) 97,87 %
18.06.2021 02:44 23,7 C 22,8 C 20,6 C 79 % 1012,8 hPa 0,0 l/m 0 min 0 min 0 W/m 6,4 km/h (2 Bft) 97,87 %
18.06.2021 02:46 23,6 C 22,8 C 20,6 C 79 % 1012,7 hPa 0,0 l/m 0 min 0 min 0 W/m 6,4 km/h (2 Bft) 97,87 %
18.06.2021 02:48 23,6 C 22,8 C 20,6 C 79 % 1012,7 hPa 0,0 l/m 0 min 0 min 0 W/m 6,4 km/h (2 Bft) 97,87 %
18.06.2021 02:50 23,6 C 22,8 C 20,6 C 79 % 1012,6 hPa 0,0 l/m 0 min 0 min 0 W/m 3,2 km/h (1 Bft) 97,87 %
18.06.2021 02:52 23,5 C 22,8 C 20,6 C 79 % 1012,6 hPa 0,0 l/m 0 min 0 min 0 W/m 6,4 km/h (2 Bft) 95,65 %
18.06.2021 02:54 23,5 C 22,2 C 20,0 C 79 % 1012,7 hPa 0,0 l/m 0 min 0 min 0 W/m 6,4 km/h (2 Bft) 97,87 %
18.06.2021 02:56 23,5 C 22,2 C 20,0 C 79 % 1012,7 hPa 0,0 l/m 0 min 0 min 0 W/m 3,2 km/h (1 Bft) 95,74 %
18.06.2021 02:58 23,4 C 22,2 C 20,0 C 80 % 1012,7 hPa 0,0 l/m 0 min 0 min 0 W/m 6,4 km/h (2 Bft) 97,87 %
18.06.2021 03:00 23,4 C 22,2 C 20,0 C 80 % 1012,6 hPa 0,0 l/m 0 min 0 min 0 W/m 6,4 km/h (2 Bft) 97,87 %
18.06.2021 03:02 23,3 C 22,2 C 20,0 C 80 % 1012,6 hPa 0,0 l/m 0 min 0 min 0 W/m 9,7 km/h (2 Bft) 95,74 %
18.06.2021 03:04 23,3 C 22,2 C 20,0 C 80 % 1012,6 hPa 0,0 l/m 0 min 0 min 0 W/m 6,4 km/h (2 Bft) 97,83 %
18.06.2021 03:06 23,3 C 22,2 C 20,0 C 80 % 1012,6 hPa 0,0 l/m 0 min 0 min 0 W/m 6,4 km/h (2 Bft) 97,87 %
18.06.2021 03:08 23,2 C 22,2 C 20,0 C 80 % 1012,5 hPa 0,0 l/m 0 min 0 min 0 W/m 6,4 km/h (2 Bft) 97,87 %
18.06.2021 03:10 23,2 C 22,2 C 20,0 C 80 % 1012,5 hPa 0,0 l/m 0 min 0 min 0 W/m 6,4 km/h (2 Bft) 95,74 %
18.06.2021 03:12 23,1 C 22,2 C 20,0 C 80 % 1012,5 hPa 0,0 l/m 0 min 0 min 0 W/m 6,4 km/h (2 Bft) 97,87 %
18.06.2021 03:14 23,1 C 22,2 C 20,0 C 80 % 1012,4 hPa 0,0 l/m 0 min 0 min 0 W/m 6,4 km/h (2 Bft) 95,74 %
18.06.2021 03:16 23,1 C 22,2 C 20,0 C 80 % 1012,5 hPa 0,0 l/m 0 min 0 min 0 W/m 6,4 km/h (2 Bft) 97,83 %
18.06.2021 03:18 23,0 C 22,2 C 20,0 C 81 % 1012,4 hPa 0,0 l/m 0 min 0 min 0 W/m 6,4 km/h (2 Bft) 97,87 %
18.06.2021 03:20 23,0 C 22,2 C 20,0 C 81 % 1012,4 hPa 0,0 l/m 0 min 0 min 0 W/m 3,2 km/h (1 Bft) 97,87 %
18.06.2021 03:22 22,9 C 22,2 C 20,0 C 81 % 1012,4 hPa 0,0 l/m 0 min 0 min 0 W/m 3,2 km/h (1 Bft) 97,87 %
18.06.2021 03:24 22,9 C 22,2 C 20,0 C 82 % 1012,5 hPa 0,0 l/m 0 min 0 min 0 W/m 3,2 km/h (1 Bft) 97,87 %
18.06.2021 03:26 22,9 C 22,2 C 20,0 C 82 % 1012,5 hPa 0,0 l/m 0 min 0 min 0 W/m 6,4 km/h (2 Bft) 100,00 %
18.06.2021 03:28 22,8 C 21,7 C 19,5 C 82 % 1012,4 hPa 0,0 l/m 0 min 0 min 0 W/m 6,4 km/h (2 Bft) 95,74 %
18.06.2021 03:30 22,8 C 21,7 C 19,5 C 82 % 1012,4 hPa 0,0 l/m 0 min 0 min 0 W/m 9,7 km/h (2 Bft) 97,87 %
18.06.2021 03:32 22,7 C 21,7 C 19,5 C 82 % 1012,4 hPa 0,0 l/m 0 min 0 min 0 W/m 3,2 km/h (1 Bft) 100,00 %
18.06.2021 03:34 22,6 C 21,7 C 19,5 C 82 % 1012,4 hPa 0,0 l/m 0 min 0 min 0 W/m 9,7 km/h (2 Bft) 100,00 %
18.06.2021 03:36 22,6 C 21,7 C 19,5 C 82 % 1012,5 hPa 0,0 l/m 0 min 0 min 0 W/m 6,4 km/h (2 Bft) 100,00 %
18.06.2021 03:38 22,6 C 21,7 C 19,5 C 82 % 1012,5 hPa 0,0 l/m 0 min 0 min 0 W/m 3,2 km/h (1 Bft) 95,65 %
18.06.2021 03:40 22,6 C 21,7 C 19,5 C 82 % 1012,5 hPa 0,0 l/m 0 min 0 min 0 W/m 0,0 km/h (0 Bft) 100,00 %
18.06.2021 03:42 22,6 C 21,7 C 19,5 C 83 % 1012,6 hPa 0,0 l/m 0 min 0 min 0 W/m 0,0 km/h (0 Bft) 100,00 %
18.06.2021 03:44 22,5 C 21,7 C 19,5 C 83 % 1012,6 hPa 0,0 l/m 0 min 0 min 0 W/m 3,2 km/h (1 Bft) 100,00 %
18.06.2021 03:46 22,5 C 21,7 C 19,5 C 83 % 1012,6 hPa 0,0 l/m 0 min 0 min 0 W/m 3,2 km/h (1 Bft) 100,00 %
18.06.2021 03:48 22,5 C 21,7 C 19,5 C 82 % 1012,6 hPa 0,0 l/m 0 min 0 min 0 W/m 3,2 km/h (1 Bft) 93,62 %
18.06.2021 03:50 22,5 C 21,7 C 19,5 C 83 % 1012,6 hPa 0,0 l/m 0 min 0 min 0 W/m 3,2 km/h (1 Bft) 95,65 %
18.06.2021 03:52 22,5 C 21,7 C 19,5 C 82 % 1012,6 hPa 0,0 l/m 0 min 0 min 0 W/m 3,2 km/h (1 Bft) 97,87 %
18.06.2021 03:54 22,5 C 21,7 C 20,0 C 82 % 1012,6 hPa 0,0 l/m 0 min 0 min 0 W/m 3,2 km/h (1 Bft) 97,87 %
18.06.2021 03:56 22,5 C 21,7 C 20,0 C 83 % 1012,6 hPa 0,0 l/m 0 min 0 min 0 W/m 0,0 km/h (0 Bft) 95,74 %
18.06.2021 03:58 22,5 C 21,7 C 19,5 C 82 % 1012,5 hPa 0,0 l/m 0 min 0 min 0 W/m 3,2 km/h (1 Bft) 97,87 %
18.06.2021 04:00 22,5 C 21,7 C 19,5 C 83 % 1012,4 hPa 0,0 l/m 0 min 0 min 0 W/m 3,2 km/h (1 Bft) 93,62 %
18.06.2021 04:02 22,5 C 21,7 C 19,5 C 83 % 1012,4 hPa 0,0 l/m 0 min 0 min 0 W/m 3,2 km/h (1 Bft) 100,00 %
18.06.2021 04:04 22,5 C 21,7 C 19,5 C 83 % 1012,4 hPa 0,0 l/m 0 min 0 min 0 W/m 3,2 km/h (1 Bft) 93,62 %
18.06.2021 04:06 22,4 C 21,7 C 19,5 C 83 % 1012,3 hPa 0,0 l/m 0 min 0 min 0 W/m 0,0 km/h (0 Bft) 93,62 %
18.06.2021 04:08 22,4 C 21,7 C 19,5 C 83 % 1012,3 hPa 0,0 l/m 0 min 0 min 0 W/m 3,2 km/h (1 Bft) 95,74 %
18.06.2021 04:10 22,4 C 21,1 C 19,5 C 83 % 1012,3 hPa 0,0 l/m 0 min 0 min 0 W/m 3,2 km/h (1 Bft) 95,74 %
18.06.2021 04:12 22,3 C 21,1 C 19,5 C 83 % 1012,3 hPa 0,0 l/m 0 min 0 min 0 W/m 0,0 km/h (0 Bft) 95,74 %
18.06.2021 04:14 22,3 C 21,1 C 18,9 C 83 % 1012,3 hPa 0,0 l/m 0 min 0 min 0 W/m 3,2 km/h (1 Bft) 95,65 %
18.06.2021 04:16 22,2 C 21,1 C 19,5 C 83 % 1012,3 hPa 0,0 l/m 0 min 0 min 0 W/m 3,2 km/h (1 Bft) 93,62 %
18.06.2021 04:18 22,1 C 21,1 C 19,5 C 83 % 1012,3 hPa 0,0 l/m 0 min 0 min 0 W/m 3,2 km/h (1 Bft) 95,74 %
18.06.2021 04:20 22,1 C 21,1 C 19,5 C 83 % 1012,2 hPa 0,0 l/m 0 min 0 min 0 W/m 3,2 km/h (1 Bft) 93,62 %
18.06.2021 04:22 22,1 C 21,1 C 19,5 C 83 % 1012,2 hPa 0,0 l/m 0 min 0 min 0 W/m 3,2 km/h (1 Bft) 95,74 %
18.06.2021 04:24 22,1 C 21,1 C 18,9 C 83 % 1012,2 hPa 0,0 l/m 0 min 0 min 0 W/m 3,2 km/h (1 Bft) 95,74 %
18.06.2021 04:26 22,0 C 21,1 C 18,9 C 83 % 1012,2 hPa 0,0 l/m 0 min 0 min 0 W/m 3,2 km/h (1 Bft) 95,65 %
18.06.2021 04:28 22,0 C 21,1 C 18,9 C 83 % 1012,2 hPa 0,0 l/m 0 min 0 min 0 W/m 6,4 km/h (2 Bft) 95,74 %
18.06.2021 04:30 22,0 C 21,1 C 18,9 C 84 % 1012,2 hPa 0,0 l/m 0 min 0 min 0 W/m 3,2 km/h (1 Bft) 95,74 %
18.06.2021 04:32 22,0 C 21,1 C 19,5 C 84 % 1012,2 hPa 0,0 l/m 0 min 0 min 0 W/m 3,2 km/h (1 Bft) 95,74 %
18.06.2021 04:34 22,0 C 21,1 C 19,5 C 84 % 1012,2 hPa 0,0 l/m 0 min 0 min 0 W/m 3,2 km/h (1 Bft) 93,62 %
18.06.2021 04:36 22,0 C 21,1 C 19,5 C 84 % 1012,2 hPa 0,0 l/m 0 min 0 min 0 W/m 3,2 km/h (1 Bft) 95,65 %
18.06.2021 04:38 22,0 C 21,1 C 19,5 C 84 % 1012,1 hPa 0,0 l/m 0 min 0 min 0 W/m 3,2 km/h (1 Bft) 97,92 %
18.06.2021 04:40 22,0 C 21,1 C 18,9 C 84 % 1012,2 hPa 0,0 l/m 0 min 0 min 0 W/m 3,2 km/h (1 Bft) 95,74 %
18.06.2021 04:42 22,0 C 21,1 C 18,9 C 84 % 1012,2 hPa 0,0 l/m 0 min 0 min 0 W/m 3,2 km/h (1 Bft) 97,87 %
18.06.2021 04:44 22,0 C 21,1 C 19,5 C 84 % 1012,3 hPa 0,0 l/m 0 min 0 min 0 W/m 3,2 km/h (1 Bft) 97,87 %
18.06.2021 04:46 22,0 C 21,1 C 19,5 C 84 % 1012,4 hPa 0,0 l/m 0 min 0 min 0 W/m 3,2 km/h (1 Bft) 97,87 %
18.06.2021 04:48 22,0 C 21,1 C 18,9 C 84 % 1012,4 hPa 0,0 l/m 0 min 0 min 0 W/m 0,0 km/h (0 Bft) 100,00 %
18.06.2021 04:50 22,0 C 21,1 C 18,9 C 84 % 1012,4 hPa 0,0 l/m 0 min 0 min 0 W/m 0,0 km/h (0 Bft) 97,87 %
18.06.2021 04:52 22,0 C 21,1 C 18,9 C 84 % 1012,4 hPa 0,0 l/m 0 min 0 min 0 W/m 0,0 km/h (0 Bft) 97,87 %
18.06.2021 04:54 22,0 C 21,1 C 18,9 C 85 % 1012,5 hPa 0,0 l/m 0 min 0 min 0 W/m 0,0 km/h (0 Bft) 97,87 %
18.06.2021 04:56 21,9 C 21,1 C 18,9 C 84 % 1012,4 hPa 0,0 l/m 0 min 0 min 0 W/m 0,0 km/h (0 Bft) 100,00 %
18.06.2021 04:58 21,9 C 21,1 C 18,9 C 85 % 1012,4 hPa 0,0 l/m 0 min 0 min 0 W/m 0,0 km/h (0 Bft) 97,87 %
18.06.2021 05:00 21,9 C 21,1 C 18,9 C 85 % 1012,4 hPa 0,0 l/m 0 min 0 min 0 W/m 0,0 km/h (0 Bft) 100,00 %
18.06.2021 05:02 21,9 C 21,1 C 18,9 C 85 % 1012,4 hPa 0,0 l/m 0 min 0 min 0 W/m 0,0 km/h (0 Bft) 100,00 %
18.06.2021 05:04 21,9 C 21,1 C 18,9 C 85 % 1012,4 hPa 0,0 l/m 0 min 0 min 0 W/m 0,0 km/h (0 Bft) 97,87 %
18.06.2021 05:06 21,9 C 21,1 C 18,9 C 85 % 1012,4 hPa 0,0 l/m 0 min 0 min 0 W/m 0,0 km/h (0 Bft) 100,00 %
18.06.2021 05:08 21,9 C 21,1 C 18,9 C 85 % 1012,4 hPa 0,0 l/m 0 min 0 min 0 W/m 3,2 km/h (1 Bft) 100,00 %
18.06.2021 05:10 21,9 C 21,1 C 18,9 C 85 % 1012,3 hPa 0,0 l/m 0 min 0 min 0 W/m 0,0 km/h (0 Bft) 100,00 %
18.06.2021 05:12 21,9 C 21,1 C 18,9 C 85 % 1012,3 hPa 0,0 l/m 0 min 0 min 0 W/m 3,2 km/h (1 Bft) 100,00 %
18.06.2021 05:14 21,9 C 21,1 C 18,9 C 85 % 1012,3 hPa 0,0 l/m 0 min 0 min 5 W/m 3,2 km/h (1 Bft) 100,00 %
18.06.2021 05:16 21,8 C 21,1 C 18,9 C 85 % 1012,3 hPa 0,0 l/m 0 min 0 min 5 W/m 3,2 km/h (1 Bft) 97,87 %
18.06.2021 05:18 21,8 C 21,1 C 18,9 C 85 % 1012,3 hPa 0,0 l/m 0 min 0 min 5 W/m 3,2 km/h (1 Bft) 100,00 %
18.06.2021 05:20 21,8 C 21,1 C 18,9 C 85 % 1012,3 hPa 0,0 l/m 0 min 0 min 6 W/m 3,2 km/h (1 Bft) 100,00 %
18.06.2021 05:22 21,8 C 21,1 C 18,9 C 85 % 1012,4 hPa 0,0 l/m 0 min 0 min 7 W/m 0,0 km/h (0 Bft) 100,00 %
18.06.2021 05:24 21,8 C 21,1 C 18,9 C 85 % 1012,4 hPa 0,0 l/m 0 min 0 min 7 W/m 3,2 km/h (1 Bft) 100,00 %
18.06.2021 05:26 21,8 C 21,1 C 18,9 C 85 % 1012,4 hPa 0,0 l/m 0 min 0 min 9 W/m 0,0 km/h (0 Bft) 100,00 %
18.06.2021 05:28 21,8 C 21,1 C 18,9 C 85 % 1012,4 hPa 0,0 l/m 0 min 0 min 10 W/m 0,0 km/h (0 Bft) 100,00 %
18.06.2021 05:30 21,8 C 21,1 C 18,9 C 85 % 1012,4 hPa 0,0 l/m 0 min 0 min 11 W/m 0,0 km/h (0 Bft) 100,00 %
18.06.2021 05:32 21,8 C 21,1 C 19,5 C 85 % 1012,4 hPa 0,0 l/m 0 min 0 min 12 W/m 0,0 km/h (0 Bft) 100,00 %
18.06.2021 05:34 21,8 C 21,1 C 19,5 C 85 % 1012,4 hPa 0,0 l/m 0 min 0 min 14 W/m 0,0 km/h (0 Bft) 100,00 %
18.06.2021 05:36 21,8 C 21,1 C 19,5 C 86 % 1012,4 hPa 0,0 l/m 0 min 0 min 14 W/m 0,0 km/h (0 Bft) 100,00 %
18.06.2021 05:38 21,8 C 21,1 C 19,5 C 85 % 1012,4 hPa 0,0 l/m 0 min 0 min 16 W/m 0,0 km/h (0 Bft) 97,87 %
18.06.2021 05:40 21,8 C 21,1 C 19,5 C 85 % 1012,4 hPa 0,0 l/m 0 min 0 min 16 W/m 0,0 km/h (0 Bft) 100,00 %
18.06.2021 05:42 21,8 C 21,1 C 19,5 C 85 % 1012,4 hPa 0,0 l/m 0 min 0 min 17 W/m 3,2 km/h (1 Bft) 100,00 %
18.06.2021 05:44 21,8 C 21,1 C 19,5 C 85 % 1012,4 hPa 0,0 l/m 0 min 0 min 18 W/m 3,2 km/h (1 Bft) 97,87 %
18.06.2021 05:46 21,8 C 21,1 C 19,5 C 85 % 1012,4 hPa 0,0 l/m 0 min 0 min 19 W/m 0,0 km/h (0 Bft) 100,00 %
18.06.2021 05:48 21,8 C 21,1 C 19,5 C 85 % 1012,4 hPa 0,0 l/m 0 min 0 min 21 W/m 3,2 km/h (1 Bft) 100,00 %
18.06.2021 05:50 21,9 C 21,1 C 19,5 C 85 % 1012,5 hPa 0,0 l/m 0 min 0 min 22 W/m 0,0 km/h (0 Bft) 97,87 %
18.06.2021 05:52 21,9 C 21,1 C 19,5 C 86 % 1012,5 hPa 0,0 l/m 0 min 0 min 24 W/m 0,0 km/h (0 Bft) 100,00 %
18.06.2021 05:54 21,9 C 21,1 C 19,5 C 86 % 1012,5 hPa 0,0 l/m 0 min 0 min 26 W/m 0,0 km/h (0 Bft) 97,87 %
18.06.2021 05:56 21,9 C 21,7 C 19,5 C 86 % 1012,5 hPa 0,0 l/m 0 min 0 min 27 W/m 0,0 km/h (0 Bft) 100,00 %
18.06.2021 05:58 21,9 C 21,1 C 19,5 C 86 % 1012,4 hPa 0,0 l/m 0 min 0 min 30 W/m 0,0 km/h (0 Bft) 100,00 %
18.06.2021 06:00 21,9 C 21,7 C 19,5 C 86 % 1012,4 hPa 0,0 l/m 0 min 0 min 32 W/m 0,0 km/h (0 Bft) 100,00 %
18.06.2021 06:02 21,9 C 21,7 C 19,5 C 86 % 1012,4 hPa 0,0 l/m 0 min 0 min 33 W/m 0,0 km/h (0 Bft) 100,00 %
18.06.2021 06:04 21,9 C 21,7 C 19,5 C 86 % 1012,4 hPa 0,0 l/m 0 min 0 min 35 W/m 0,0 km/h (0 Bft) 97,87 %
18.06.2021 06:08 21,9 C 21,7 C 19,5 C 86 % 1012,4 hPa 0,0 l/m 0 min 0 min 39 W/m 3,2 km/h (1 Bft) 100,00 %
18.06.2021 06:10 22,0 C 21,7 C 19,5 C 86 % 1012,4 hPa 0,0 l/m 0 min 0 min 42 W/m 0,0 km/h (0 Bft) 100,00 %
18.06.2021 06:12 22,0 C 21,7 C 19,5 C 86 % 1012,4 hPa 0,0 l/m 0 min 0 min 43 W/m 0,0 km/h (0 Bft) 97,87 %
18.06.2021 06:14 22,0 C 21,7 C 19,5 C 86 % 1012,4 hPa 0,0 l/m 0 min 0 min 46 W/m 0,0 km/h (0 Bft) 97,87 %
18.06.2021 06:16 22,0 C 21,7 C 19,5 C 86 % 1012,4 hPa 0,0 l/m 0 min 0 min 47 W/m 0,0 km/h (0 Bft) 97,87 %
18.06.2021 06:18 22,0 C 21,7 C 19,5 C 86 % 1012,4 hPa 0,0 l/m 0 min 0 min 49 W/m 0,0 km/h (0 Bft) 97,87 %
18.06.2021 06:20 22,0 C 21,7 C 19,5 C 86 % 1012,4 hPa 0,0 l/m 0 min 0 min 51 W/m 0,0 km/h (0 Bft) 97,87 %
18.06.2021 06:22 22,1 C 21,7 C 19,5 C 86 % 1012,4 hPa 0,0 l/m 0 min 0 min 53 W/m 3,2 km/h (1 Bft) 97,83 %
18.06.2021 06:24 22,1 C 21,7 C 19,5 C 86 % 1012,3 hPa 0,0 l/m 0 min 0 min 54 W/m 0,0 km/h (0 Bft) 93,62 %
18.06.2021 06:26 22,1 C 22,2 C 19,5 C 86 % 1012,3 hPa 0,0 l/m 0 min 0 min 54 W/m 3,2 km/h (1 Bft) 97,87 %
18.06.2021 06:28 22,1 C 22,2 C 19,5 C 86 % 1012,3 hPa 0,0 l/m 0 min 0 min 56 W/m 3,2 km/h (1 Bft) 97,87 %
18.06.2021 06:30 22,1 C 22,2 C 20,0 C 86 % 1012,3 hPa 0,0 l/m 0 min 0 min 56 W/m 0,0 km/h (0 Bft) 95,74 %
18.06.2021 06:32 22,1 C 22,2 C 20,0 C 86 % 1012,3 hPa 0,0 l/m 0 min 0 min 57 W/m 3,2 km/h (1 Bft) 97,87 %
18.06.2021 06:34 22,2 C 22,2 C 20,0 C 86 % 1012,2 hPa 0,0 l/m 0 min 0 min 60 W/m 3,2 km/h (1 Bft) 95,65 %
18.06.2021 06:36 22,2 C 22,2 C 20,0 C 86 % 1012,2 hPa 0,0 l/m 0 min 0 min 60 W/m 3,2 km/h (1 Bft) 97,87 %
18.06.2021 06:38 22,2 C 22,2 C 20,0 C 86 % 1012,2 hPa 0,0 l/m 0 min 0 min 62 W/m 0,0 km/h (0 Bft) 95,74 %
18.06.2021 06:40 22,3 C 22,2 C 20,0 C 86 % 1012,3 hPa 0,0 l/m 0 min 0 min 62 W/m 3,2 km/h (1 Bft) 97,87 %
18.06.2021 06:42 22,3 C 22,2 C 20,0 C 86 % 1012,3 hPa 0,0 l/m 0 min 0 min 63 W/m 3,2 km/h (1 Bft) 95,74 %
18.06.2021 06:44 22,3 C 22,2 C 20,0 C 86 % 1012,3 hPa 0,0 l/m 0 min 0 min 64 W/m 3,2 km/h (1 Bft) 95,65 %
18.06.2021 06:46 22,3 C 22,2 C 20,0 C 86 % 1012,3 hPa 0,0 l/m 0 min 0 min 65 W/m 0,0 km/h (0 Bft) 93,62 %
18.06.2021 06:48 22,4 C 22,2 C 20,0 C 86 % 1012,3 hPa 0,0 l/m 0 min 0 min 67 W/m 0,0 km/h (0 Bft) 93,62 %
18.06.2021 06:50 22,4 C 22,2 C 20,0 C 86 % 1012,4 hPa 0,0 l/m 0 min 0 min 69 W/m 3,2 km/h (1 Bft) 93,62 %
18.06.2021 06:52 22,4 C 22,8 C 20,0 C 86 % 1012,3 hPa 0,0 l/m 0 min 0 min 71 W/m 0,0 km/h (0 Bft) 89,36 %
18.06.2021 06:54 22,5 C 22,8 C 20,0 C 87 % 1012,3 hPa 0,0 l/m 0 min 0 min 72 W/m 3,2 km/h (1 Bft) 93,62 %
18.06.2021 06:56 22,5 C 22,8 C 20,0 C 86 % 1012,3 hPa 0,0 l/m 0 min 0 min 76 W/m 3,2 km/h (1 Bft) 91,30 %
18.06.2021 06:58 22,5 C 22,8 C 20,0 C 87 % 1012,2 hPa 0,0 l/m 0 min 0 min 77 W/m 3,2 km/h (1 Bft) 91,49 %
18.06.2021 07:00 22,6 C 22,8 C 20,0 C 87 % 1012,3 hPa 0,0 l/m 0 min 0 min 84 W/m 3,2 km/h (1 Bft) 93,62 %
18.06.2021 07:02 22,6 C 22,8 C 20,6 C 86 % 1012,4 hPa 0,0 l/m 0 min 0 min 90 W/m 3,2 km/h (1 Bft) 91,49 %
18.06.2021 07:04 22,7 C 22,8 C 20,6 C 86 % 1012,4 hPa 0,0 l/m 0 min 0 min 96 W/m 6,4 km/h (2 Bft) 91,49 %
18.06.2021 07:06 22,8 C 22,8 C 20,6 C 86 % 1012,7 hPa 0,0 l/m 0 min 0 min 97 W/m 9,7 km/h (2 Bft) 93,62 %
18.06.2021 07:08 22,9 C 22,8 C 20,6 C 86 % 1012,8 hPa 0,0 l/m 0 min 0 min 97 W/m 9,7 km/h (2 Bft) 93,48 %
18.06.2021 07:10 23,0 C 22,8 C 20,6 C 86 % 1012,7 hPa 0,0 l/m 0 min 0 min 97 W/m 6,4 km/h (2 Bft) 91,49 %
18.06.2021 07:12 23,0 C 22,8 C 20,6 C 85 % 1012,6 hPa 0,0 l/m 0 min 0 min 97 W/m 9,7 km/h (2 Bft) 93,62 %
18.06.2021 07:14 23,1 C 22,8 C 20,6 C 84 % 1012,5 hPa 0,0 l/m 0 min 0 min 93 W/m 6,4 km/h (2 Bft) 93,62 %
18.06.2021 07:16 23,1 C 22,8 C 20,6 C 84 % 1012,6 hPa 0,0 l/m 0 min 0 min 91 W/m 3,2 km/h (1 Bft) 95,74 %
18.06.2021 07:18 23,1 C 23,3 C 20,6 C 84 % 1012,7 hPa 0,0 l/m 0 min 0 min 91 W/m 9,7 km/h (2 Bft) 95,74 %
18.06.2021 07:20 23,2 C 23,3 C 21,1 C 84 % 1012,8 hPa 0,0 l/m 0 min 0 min 93 W/m 6,4 km/h (2 Bft) 93,48 %
18.06.2021 07:22 23,3 C 23,3 C 21,1 C 84 % 1012,7 hPa 0,0 l/m 0 min 0 min 93 W/m 3,2 km/h (1 Bft) 97,87 %
18.06.2021 07:24 23,3 C 23,3 C 21,1 C 84 % 1012,6 hPa 0,0 l/m 0 min 0 min 93 W/m 6,4 km/h (2 Bft) 95,74 %
18.06.2021 07:26 23,3 C 23,3 C 21,1 C 84 % 1012,6 hPa 0,0 l/m 0 min 0 min 93 W/m 6,4 km/h (2 Bft) 95,74 %
18.06.2021 07:28 23,4 C 23,3 C 21,1 C 84 % 1012,7 hPa 0,0 l/m 0 min 0 min 93 W/m 6,4 km/h (2 Bft) 95,74 %
18.06.2021 07:30 23,4 C 23,3 C 21,1 C 84 % 1012,8 hPa 0,0 l/m 0 min 0 min 91 W/m 9,7 km/h (2 Bft) 91,49 %
18.06.2021 07:32 23,4 C 23,3 C 21,1 C 84 % 1012,7 hPa 0,0 l/m 0 min 0 min 91 W/m 6,4 km/h (2 Bft) 100,00 %
18.06.2021 07:34 23,5 C 23,3 C 21,1 C 84 % 1012,7 hPa 0,0 l/m 0 min 0 min 91 W/m 6,4 km/h (2 Bft) 97,87 %
18.06.2021 07:36 23,5 C 23,3 C 21,1 C 83 % 1012,7 hPa 0,0 l/m 0 min 0 min 96 W/m 3,2 km/h (1 Bft) 100,00 %
18.06.2021 07:38 23,5 C 23,3 C 21,1 C 83 % 1012,8 hPa 0,0 l/m 0 min 0 min 130 W/m 9,7 km/h (2 Bft) 100,00 %
18.06.2021 07:40 23,6 C 23,3 C 21,1 C 83 % 1012,8 hPa 0,0 l/m 2 min 0 min 188 W/m 9,7 km/h (2 Bft) 100,00 %
18.06.2021 07:42 23,6 C 23,3 C 21,1 C 83 % 1012,8 hPa 0,0 l/m 2 min 0 min 214 W/m 12,9 km/h (3 Bft) 100,00 %
18.06.2021 07:44 23,6 C 23,3 C 21,1 C 83 % 1012,8 hPa 0,0 l/m 2 min 0 min 227 W/m 22,5 km/h (4 Bft) 100,00 %
18.06.2021 07:46 23,7 C 23,3 C 21,1 C 83 % 1012,8 hPa 0,0 l/m 2 min 0 min 254 W/m 16,1 km/h (3 Bft) 100,00 %
18.06.2021 07:48 23,7 C 23,3 C 21,1 C 83 % 1012,8 hPa 0,0 l/m 2 min 0 min 284 W/m 12,9 km/h (3 Bft) 100,00 %
18.06.2021 07:50 23,8 C 23,9 C 21,1 C 83 % 1012,9 hPa 0,0 l/m 2 min 0 min 308 W/m 12,9 km/h (3 Bft) 100,00 %
18.06.2021 07:52 23,8 C 23,9 C 21,7 C 83 % 1013,0 hPa 0,0 l/m 2 min 0 min 314 W/m 12,9 km/h (3 Bft) 100,00 %
18.06.2021 07:54 23,8 C 23,9 C 21,7 C 82 % 1012,9 hPa 0,0 l/m 2 min 0 min 324 W/m 16,1 km/h (3 Bft) 100,00 %
18.06.2021 07:56 23,9 C 23,9 C 21,7 C 82 % 1012,9 hPa 0,0 l/m 2 min 0 min 303 W/m 9,7 km/h (2 Bft) 100,00 %
18.06.2021 07:58 23,9 C 23,9 C 21,7 C 82 % 1012,9 hPa 0,0 l/m 2 min 0 min 272 W/m 9,7 km/h (2 Bft) 100,00 %
18.06.2021 08:00 24,0 C 23,9 C 21,7 C 82 % 1013,0 hPa 0,0 l/m 2 min 0 min 246 W/m 12,9 km/h (3 Bft) 100,00 %
18.06.2021 08:02 24,0 C 23,9 C 21,7 C 81 % 1013,0 hPa 0,0 l/m 2 min 0 min 233 W/m 12,9 km/h (3 Bft) 97,87 %
18.06.2021 08:04 24,0 C 23,9 C 21,7 C 81 % 1013,1 hPa 0,0 l/m 2 min 0 min 291 W/m 9,7 km/h (2 Bft) 100,00 %
18.06.2021 08:06 24,1 C 24,4 C 21,7 C 81 % 1013,1 hPa 0,0 l/m 2 min 0 min 263 W/m 12,9 km/h (3 Bft) 100,00 %
18.06.2021 08:08 24,1 C 24,4 C 22,3 C 81 % 1013,1 hPa 0,0 l/m 2 min 0 min 271 W/m 9,7 km/h (2 Bft) 100,00 %
18.06.2021 08:10 24,2 C 25,0 C 22,3 C 82 % 1013,1 hPa 0,0 l/m 2 min 0 min 392 W/m 12,9 km/h (3 Bft) 100,00 %
18.06.2021 08:12 24,3 C 25,6 C 22,3 C 82 % 1013,1 hPa 0,0 l/m 2 min 0 min 392 W/m 9,7 km/h (2 Bft) 100,00 %
18.06.2021 08:14 24,4 C 25,6 C 22,3 C 81 % 1013,1 hPa 0,0 l/m 2 min 0 min 387 W/m 9,7 km/h (2 Bft) 100,00 %
18.06.2021 08:16 24,5 C 25,6 C 22,3 C 81 % 1013,1 hPa 0,0 l/m 2 min 0 min 375 W/m 6,4 km/h (2 Bft) 100,00 %
18.06.2021 08:18 24,6 C 26,1 C 22,8 C 80 % 1013,1 hPa 0,0 l/m 2 min 0 min 359 W/m 12,9 km/h (3 Bft) 100,00 %
18.06.2021 08:20 24,8 C 26,7 C 22,8 C 80 % 1013,2 hPa 0,0 l/m 2 min 0 min 344 W/m 6,4 km/h (2 Bft) 97,87 %
18.06.2021 08:22 24,9 C 26,7 C 22,8 C 80 % 1013,2 hPa 0,0 l/m 2 min 0 min 336 W/m 9,7 km/h (2 Bft) 100,00 %
18.06.2021 08:24 25,0 C 26,7 C 23,4 C 80 % 1013,2 hPa 0,0 l/m 2 min 0 min 345 W/m 6,4 km/h (2 Bft) 100,00 %
18.06.2021 08:26 25,1 C 26,7 C 23,4 C 79 % 1013,2 hPa 0,0 l/m 2 min 0 min 344 W/m 6,4 km/h (2 Bft) 100,00 %
18.06.2021 08:28 25,1 C 26,7 C 23,4 C 79 % 1013,2 hPa 0,0 l/m 2 min 0 min 347 W/m 9,7 km/h (2 Bft) 100,00 %
18.06.2021 08:30 25,2 C 27,2 C 23,9 C 79 % 1013,2 hPa 0,0 l/m 2 min 0 min 358 W/m 9,7 km/h (2 Bft) 100,00 %
18.06.2021 08:32 25,4 C 27,2 C 23,9 C 78 % 1013,2 hPa 0,0 l/m 2 min 0 min 376 W/m 6,4 km/h (2 Bft) 100,00 %
18.06.2021 08:34 25,5 C 27,8 C 23,9 C 78 % 1013,2 hPa 0,0 l/m 2 min 0 min 387 W/m 6,4 km/h (2 Bft) 100,00 %
18.06.2021 08:36 25,6 C 28,3 C 24,5 C 78 % 1013,2 hPa 0,0 l/m 2 min 0 min 402 W/m 12,9 km/h (3 Bft) 100,00 %
18.06.2021 08:38 25,6 C 28,3 C 24,5 C 77 % 1013,2 hPa 0,0 l/m 2 min 0 min 417 W/m 6,4 km/h (2 Bft) 100,00 %
18.06.2021 08:40 25,8 C 28,9 C 24,5 C 77 % 1013,2 hPa 0,0 l/m 2 min 0 min 427 W/m 3,2 km/h (1 Bft) 100,00 %
18.06.2021 08:42 25,9 C 28,9 C 25,0 C 77 % 1013,3 hPa 0,0 l/m 2 min 0 min 431 W/m 9,7 km/h (2 Bft) 100,00 %
18.06.2021 08:44 26,0 C 28,3 C 25,0 C 76 % 1013,3 hPa 0,0 l/m 2 min 0 min 442 W/m 3,2 km/h (1 Bft) 100,00 %
18.06.2021 08:46 26,0 C 28,3 C 25,0 C 77 % 1013,3 hPa 0,0 l/m 2 min 0 min 453 W/m 3,2 km/h (1 Bft) 100,00 %
18.06.2021 08:48 26,1 C 28,3 C 25,0 C 77 % 1013,3 hPa 0,0 l/m 2 min 0 min 433 W/m 6,4 km/h (2 Bft) 100,00 %
18.06.2021 08:50 26,3 C 28,3 C 25,0 C 76 % 1013,3 hPa 0,0 l/m 2 min 0 min 506 W/m 9,7 km/h (2 Bft) 100,00 %
18.06.2021 08:52 26,3 C 28,3 C 25,0 C 75 % 1013,3 hPa 0,0 l/m 2 min 0 min 510 W/m 6,4 km/h (2 Bft) 100,00 %
18.06.2021 08:54 26,3 C 28,3 C 25,0 C 75 % 1013,3 hPa 0,0 l/m 2 min 0 min 515 W/m 6,4 km/h (2 Bft) 97,83 %
18.06.2021 08:56 26,4 C 28,9 C 25,0 C 75 % 1013,2 hPa 0,0 l/m 2 min 0 min 513 W/m 6,4 km/h (2 Bft) 100,00 %
18.06.2021 08:58 26,4 C 29,4 C 25,6 C 75 % 1013,2 hPa 0,0 l/m 2 min 0 min 506 W/m 6,4 km/h (2 Bft) 97,87 %
18.06.2021 09:00 26,5 C 30,0 C 25,6 C 76 % 1013,3 hPa 0,0 l/m 2 min 0 min 526 W/m 3,2 km/h (1 Bft) 97,87 %
18.06.2021 09:02 26,6 C 31,1 C 26,1 C 76 % 1013,2 hPa 0,0 l/m 2 min 0 min 550 W/m 6,4 km/h (2 Bft) 100,00 %
18.06.2021 09:04 26,8 C 31,1 C 26,1 C 75 % 1013,3 hPa 0,0 l/m 2 min 0 min 525 W/m 6,4 km/h (2 Bft) 100,00 %
18.06.2021 09:06 26,9 C 31,1 C 26,1 C 74 % 1013,2 hPa 0,0 l/m 2 min 0 min 542 W/m 6,4 km/h (2 Bft) 97,87 %
18.06.2021 09:08 27,0 C 31,7 C 26,7 C 74 % 1013,2 hPa 0,0 l/m 2 min 0 min 569 W/m 6,4 km/h (2 Bft) 100,00 %
18.06.2021 09:10 27,1 C 31,1 C 26,1 C 73 % 1013,2 hPa 0,0 l/m 2 min 0 min 401 W/m 9,7 km/h (2 Bft) 100,00 %
18.06.2021 09:12 27,1 C 30,6 C 26,1 C 73 % 1013,2 hPa 0,0 l/m 2 min 0 min 470 W/m 6,4 km/h (2 Bft) 100,00 %
18.06.2021 09:14 27,2 C 30,0 C 25,6 C 74 % 1013,2 hPa 0,0 l/m 0 min 0 min 278 W/m 3,2 km/h (1 Bft) 100,00 %
18.06.2021 09:16 27,2 C 29,4 C 25,6 C 73 % 1013,1 hPa 0,0 l/m 2 min 0 min 291 W/m 9,7 km/h (2 Bft) 100,00 %
18.06.2021 09:18 27,1 C 28,3 C 25,0 C 73 % 1013,1 hPa 0,0 l/m 0 min 0 min 272 W/m 6,4 km/h (2 Bft) 100,00 %
18.06.2021 09:20 27,1 C 27,8 C 25,0 C 73 % 1013,1 hPa 0,0 l/m 0 min 0 min 273 W/m 6,4 km/h (2 Bft) 100,00 %
18.06.2021 09:22 27,1 C 27,8 C 24,5 C 73 % 1013,1 hPa 0,0 l/m 0 min 0 min 274 W/m 3,2 km/h (1 Bft) 97,87 %
18.06.2021 09:24 27,1 C 27,8 C 24,5 C 74 % 1013,1 hPa 0,0 l/m 0 min 0 min 268 W/m 6,4 km/h (2 Bft) 97,87 %
18.06.2021 09:26 27,1 C 27,2 C 24,5 C 73 % 1013,1 hPa 0,0 l/m 0 min 0 min 262 W/m 6,4 km/h (2 Bft) 97,87 %
18.06.2021 09:28 27,0 C 27,2 C 23,9 C 73 % 1013,2 hPa 0,0 l/m 0 min 0 min 259 W/m 6,4 km/h (2 Bft) 93,48 %
18.06.2021 09:30 27,0 C 27,2 C 23,9 C 74 % 1013,2 hPa 0,0 l/m 0 min 0 min 253 W/m 6,4 km/h (2 Bft) 93,62 %
18.06.2021 09:32 27,0 C 27,2 C 23,9 C 74 % 1013,0 hPa 0,0 l/m 0 min 0 min 262 W/m 6,4 km/h (2 Bft) 97,87 %
18.06.2021 09:34 26,9 C 27,2 C 23,9 C 74 % 1013,0 hPa 0,0 l/m 0 min 0 min 256 W/m 6,4 km/h (2 Bft) 95,74 %
18.06.2021 09:36 26,9 C 27,2 C 23,9 C 75 % 1012,9 hPa 0,0 l/m 0 min 0 min 265 W/m 6,4 km/h (2 Bft) 95,74 %
18.06.2021 09:38 26,8 C 27,2 C 23,9 C 75 % 1013,0 hPa 0,0 l/m 0 min 0 min 282 W/m 6,4 km/h (2 Bft) 95,35 %
18.06.2021 09:40 26,8 C 27,2 C 24,5 C 75 % 1013,1 hPa 0,0 l/m 0 min 0 min 294 W/m 6,4 km/h (2 Bft) 98,00 %
18.06.2021 09:42 26,8 C 27,2 C 24,5 C 75 % 1013,0 hPa 0,0 l/m 0 min 0 min 292 W/m 6,4 km/h (2 Bft) 95,74 %
18.06.2021 09:44 26,8 C 27,2 C 24,5 C 74 % 1012,9 hPa 0,0 l/m 0 min 0 min 269 W/m 6,4 km/h (2 Bft) 95,74 %
18.06.2021 09:46 26,8 C 27,2 C 24,5 C 75 % 1012,8 hPa 0,0 l/m 0 min 0 min 250 W/m 9,7 km/h (2 Bft) 93,62 %
18.06.2021 09:48 26,8 C 27,2 C 24,5 C 74 % 1012,8 hPa 0,0 l/m 0 min 0 min 231 W/m 3,2 km/h (1 Bft) 93,62 %
18.06.2021 09:50 26,8 C 27,2 C 23,9 C 75 % 1012,8 hPa 0,0 l/m 0 min 0 min 207 W/m 9,7 km/h (2 Bft) 91,49 %
18.06.2021 09:52 26,8 C 27,2 C 23,9 C 75 % 1012,8 hPa 0,0 l/m 0 min 0 min 184 W/m 6,4 km/h (2 Bft) 93,48 %
18.06.2021 09:54 26,8 C 26,7 C 23,9 C 75 % 1012,8 hPa 0,0 l/m 0 min 0 min 184 W/m 6,4 km/h (2 Bft) 93,62 %
18.06.2021 09:56 26,8 C 26,7 C 23,9 C 75 % 1012,8 hPa 0,0 l/m 0 min 0 min 186 W/m 9,7 km/h (2 Bft) 93,62 %
18.06.2021 09:58 26,7 C 26,7 C 23,9 C 76 % 1012,9 hPa 0,0 l/m 0 min 0 min 182 W/m 6,4 km/h (2 Bft) 91,49 %
18.06.2021 10:00 26,6 C 26,7 C 23,9 C 76 % 1012,9 hPa 0,0 l/m 0 min 0 min 163 W/m 6,4 km/h (2 Bft) 93,62 %
18.06.2021 10:02 26,6 C 26,7 C 23,4 C 76 % 1012,9 hPa 0,0 l/m 0 min 0 min 142 W/m 3,2 km/h (1 Bft) 93,48 %
18.06.2021 10:04 26,6 C 26,7 C 23,4 C 76 % 1012,9 hPa 0,0 l/m 0 min 0 min 121 W/m 3,2 km/h (1 Bft) 95,74 %
18.06.2021 10:06 26,5 C 26,1 C 23,4 C 76 % 1013,0 hPa 0,0 l/m 0 min 0 min 101 W/m 6,4 km/h (2 Bft) 95,74 %
18.06.2021 10:08 26,5 C 26,1 C 23,4 C 76 % 1013,0 hPa 0,0 l/m 0 min 0 min 89 W/m 3,2 km/h (1 Bft) 95,74 %
18.06.2021 10:10 26,5 C 26,1 C 23,4 C 77 % 1013,0 hPa 0,0 l/m 0 min 0 min 80 W/m 3,2 km/h (1 Bft) 95,74 %
18.06.2021 10:12 26,4 C 26,1 C 23,4 C 77 % 1013,1 hPa 0,0 l/m 0 min 0 min 76 W/m 3,2 km/h (1 Bft) 95,74 %
18.06.2021 10:14 26,4 C 25,6 C 23,4 C 77 % 1013,1 hPa 0,0 l/m 0 min 0 min 76 W/m 3,2 km/h (1 Bft) 95,65 %
18.06.2021 10:16 26,4 C 25,6 C 23,4 C 77 % 1013,1 hPa 0,0 l/m 0 min 0 min 76 W/m 3,2 km/h (1 Bft) 96,23 %
18.06.2021 10:18 26,4 C 25,6 C 23,4 C 77 % 1013,0 hPa 0,0 l/m 0 min 0 min 82 W/m 3,2 km/h (1 Bft) 91,49 %
18.06.2021 10:20 26,4 C 25,6 C 23,4 C 77 % 1013,1 hPa 0,0 l/m 0 min 0 min 98 W/m 6,4 km/h (2 Bft) 95,74 %
18.06.2021 10:22 26,4 C 25,6 C 23,4 C 78 % 1013,1 hPa 0,0 l/m 0 min 0 min 115 W/m 3,2 km/h (1 Bft) 95,74 %
18.06.2021 10:24 26,3 C 26,1 C 23,4 C 78 % 1013,1 hPa 0,0 l/m 0 min 0 min 133 W/m 3,2 km/h (1 Bft) 95,65 %
18.06.2021 10:26 26,3 C 26,1 C 23,4 C 78 % 1013,0 hPa 0,0 l/m 0 min 0 min 151 W/m 3,2 km/h (1 Bft) 95,74 %
18.06.2021 10:28 26,3 C 26,1 C 23,4 C 79 % 1013,0 hPa 0,0 l/m 0 min 0 min 167 W/m 3,2 km/h (1 Bft) 95,74 %
18.06.2021 10:30 26,3 C 26,1 C 23,4 C 79 % 1012,9 hPa 0,0 l/m 0 min 0 min 191 W/m 3,2 km/h (1 Bft) 95,74 %
18.06.2021 10:32 26,3 C 26,7 C 23,4 C 79 % 1012,9 hPa 0,0 l/m 0 min 0 min 221 W/m 3,2 km/h (1 Bft) 93,62 %
18.06.2021 10:34 26,3 C 26,7 C 23,9 C 79 % 1013,0 hPa 0,0 l/m 0 min 0 min 252 W/m 3,2 km/h (1 Bft) 95,74 %
18.06.2021 10:36 26,3 C 27,2 C 23,9 C 79 % 1013,0 hPa 0,0 l/m 0 min 0 min 268 W/m 3,2 km/h (1 Bft) 95,65 %
18.06.2021 10:38 26,3 C 27,2 C 23,9 C 79 % 1012,9 hPa 0,0 l/m 0 min 0 min 276 W/m 6,4 km/h (2 Bft) 97,87 %
18.06.2021 10:40 26,3 C 27,2 C 23,9 C 79 % 1012,9 hPa 0,0 l/m 0 min 0 min 282 W/m 6,4 km/h (2 Bft) 97,37 %
18.06.2021 10:42 26,4 C 27,2 C 24,5 C 79 % 1012,9 hPa 0,0 l/m 0 min 0 min 320 W/m 6,4 km/h (2 Bft) 97,87 %
18.06.2021 10:44 26,4 C 27,8 C 24,5 C 79 % 1012,9 hPa 0,0 l/m 0 min 0 min 359 W/m 6,4 km/h (2 Bft) 100,00 %
18.06.2021 10:46 26,5 C 28,3 C 25,6 C 79 % 1012,9 hPa 0,0 l/m 2 min 0 min 385 W/m 6,4 km/h (2 Bft) 97,87 %
18.06.2021 10:48 26,6 C 29,4 C 27,8 C 79 % 1012,9 hPa 0,0 l/m 2 min 0 min 388 W/m 3,2 km/h (1 Bft) 100,00 %
18.06.2021 10:50 26,8 C 30,0 C 28,4 C 79 % 1012,8 hPa 0,0 l/m 2 min 0 min 656 W/m 6,4 km/h (2 Bft) 100,00 %
18.06.2021 10:52 27,0 C 30,6 C 28,4 C 78 % 1012,8 hPa 0,0 l/m 2 min 0 min 766 W/m 6,4 km/h (2 Bft) 100,00 %
18.06.2021 10:54 27,1 C 30,0 C 27,8 C 77 % 1012,8 hPa 0,0 l/m 2 min 0 min 515 W/m 6,4 km/h (2 Bft) 97,87 %
18.06.2021 10:56 27,3 C 30,0 C 27,3 C 76 % 1012,7 hPa 0,0 l/m 0 min 0 min 321 W/m 9,7 km/h (2 Bft) 97,87 %
18.06.2021 10:58 27,4 C 29,4 C 26,7 C 76 % 1012,8 hPa 0,0 l/m 0 min 0 min 312 W/m 6,4 km/h (2 Bft) 100,00 %
18.06.2021 11:00 27,5 C 28,9 C 26,1 C 76 % 1012,8 hPa 0,0 l/m 0 min 0 min 314 W/m 3,2 km/h (1 Bft) 100,00 %
18.06.2021 11:02 27,5 C 28,9 C 26,1 C 75 % 1012,8 hPa 0,0 l/m 0 min 0 min 364 W/m 6,4 km/h (2 Bft) 100,00 %
18.06.2021 11:04 27,5 C 28,9 C 26,1 C 75 % 1012,8 hPa 0,0 l/m 0 min 0 min 337 W/m 6,4 km/h (2 Bft) 100,00 %
18.06.2021 11:06 27,5 C 28,9 C 26,1 C 74 % 1012,8 hPa 0,0 l/m 0 min 0 min 318 W/m 6,4 km/h (2 Bft) 100,00 %
18.06.2021 11:08 27,5 C 28,9 C 26,1 C 74 % 1012,8 hPa 0,0 l/m 0 min 0 min 320 W/m 6,4 km/h (2 Bft) 100,00 %
18.06.2021 11:10 27,5 C 29,4 C 26,1 C 74 % 1012,8 hPa 0,0 l/m 2 min 0 min 444 W/m 6,4 km/h (2 Bft) 100,00 %
18.06.2021 11:12 27,6 C 29,4 C 26,1 C 74 % 1012,8 hPa 0,0 l/m 0 min 0 min 399 W/m 6,4 km/h (2 Bft) 100,00 %
18.06.2021 11:14 27,6 C 29,4 C 26,7 C 74 % 1012,8 hPa 0,0 l/m 2 min 0 min 508 W/m 3,2 km/h (1 Bft) 97,83 %
18.06.2021 11:16 27,7 C 29,4 C 26,7 C 74 % 1012,8 hPa 0,0 l/m 2 min 0 min 521 W/m 3,2 km/h (1 Bft) 97,87 %
18.06.2021 11:18 27,8 C 29,4 C 26,7 C 74 % 1012,8 hPa 0,0 l/m 0 min 0 min 404 W/m 6,4 km/h (2 Bft) 100,00 %
18.06.2021 11:20 27,8 C 30,0 C 26,7 C 74 % 1012,8 hPa 0,0 l/m 2 min 0 min 611 W/m 6,4 km/h (2 Bft) 100,00 %
18.06.2021 11:22 27,9 C 30,6 C 27,3 C 74 % 1012,8 hPa 0,0 l/m 2 min 0 min 770 W/m 6,4 km/h (2 Bft) 100,00 %
18.06.2021 11:24 28,1 C 31,1 C 28,4 C 74 % 1012,8 hPa 0,0 l/m 2 min 0 min 829 W/m 3,2 km/h (1 Bft) 97,83 %
18.06.2021 11:26 28,2 C 30,6 C 28,4 C 73 % 1012,8 hPa 0,0 l/m 2 min 0 min 805 W/m 6,4 km/h (2 Bft) 100,00 %
18.06.2021 11:28 28,3 C 31,1 C 28,4 C 72 % 1012,8 hPa 0,0 l/m 2 min 0 min 805 W/m 6,4 km/h (2 Bft) 100,00 %
18.06.2021 11:30 28,4 C 31,1 C 28,4 C 72 % 1012,8 hPa 0,0 l/m 2 min 0 min 805 W/m 6,4 km/h (2 Bft) 100,00 %
18.06.2021 11:32 28,4 C 30,6 C 28,4 C 71 % 1012,8 hPa 0,0 l/m 2 min 0 min 697 W/m 6,4 km/h (2 Bft) 97,87 %
18.06.2021 11:34 28,5 C 31,1 C 28,4 C 70 % 1012,7 hPa 0,0 l/m 2 min 0 min 782 W/m 6,4 km/h (2 Bft) 100,00 %
18.06.2021 11:36 28,5 C 30,6 C 27,8 C 69 % 1012,7 hPa 0,0 l/m 2 min 0 min 781 W/m 6,4 km/h (2 Bft) 97,83 %
18.06.2021 11:38 28,6 C 31,1 C 28,4 C 70 % 1012,7 hPa 0,0 l/m 2 min 0 min 810 W/m 6,4 km/h (2 Bft) 97,87 %
18.06.2021 11:40 28,8 C 31,7 C 28,9 C 70 % 1012,7 hPa 0,0 l/m 2 min 0 min 799 W/m 6,4 km/h (2 Bft) 100,00 %
18.06.2021 11:42 28,9 C 32,2 C 29,5 C 69 % 1012,7 hPa 0,0 l/m 2 min 0 min 756 W/m 9,7 km/h (2 Bft) 97,87 %
18.06.2021 11:44 29,0 C 31,7 C 28,9 C 68 % 1012,7 hPa 0,0 l/m 2 min 0 min 556 W/m 9,7 km/h (2 Bft) 100,00 %
18.06.2021 11:46 29,1 C 31,7 C 30,0 C 68 % 1012,7 hPa 0,0 l/m 2 min 0 min 527 W/m 6,4 km/h (2 Bft) 97,87 %
18.06.2021 11:48 29,1 C 31,7 C 30,6 C 66 % 1012,7 hPa 0,0 l/m 2 min 0 min 697 W/m 6,4 km/h (2 Bft) 100,00 %
18.06.2021 11:50 29,2 C 31,7 C 30,6 C 67 % 1012,7 hPa 0,0 l/m 2 min 0 min 759 W/m 6,4 km/h (2 Bft) 97,87 %
18.06.2021 11:52 29,3 C 31,7 C 30,6 C 67 % 1012,6 hPa 0,0 l/m 2 min 0 min 757 W/m 6,4 km/h (2 Bft) 100,00 %
18.06.2021 11:54 29,4 C 31,1 C 30,0 C 67 % 1012,7 hPa 0,0 l/m 2 min 0 min 756 W/m 6,4 km/h (2 Bft) 97,87 %
18.06.2021 11:56 29,5 C 31,7 C 29,5 C 67 % 1012,6 hPa 0,0 l/m 2 min 0 min 752 W/m 6,4 km/h (2 Bft) 97,87 %
18.06.2021 11:58 29,6 C 32,2 C 29,5 C 68 % 1012,6 hPa 0,0 l/m 2 min 0 min 756 W/m 6,4 km/h (2 Bft) 97,87 %
18.06.2021 12:00 29,7 C 32,2 C 30,6 C 66 % 1012,6 hPa 0,0 l/m 2 min 0 min 750 W/m 6,4 km/h (2 Bft) 95,65 %
18.06.2021 12:02 29,8 C 32,2 C 30,0 C 65 % 1012,5 hPa 0,0 l/m 2 min 0 min 745 W/m 6,4 km/h (2 Bft) 95,74 %
18.06.2021 12:04 29,8 C 31,7 C 30,0 C 63 % 1012,5 hPa 0,0 l/m 2 min 0 min 760 W/m 6,4 km/h (2 Bft) 95,74 %
18.06.2021 12:08 30,0 C 32,8 C 31,1 C 63 % 1012,4 hPa 0,0 l/m 4 min 0 min 770 W/m 9,7 km/h (2 Bft) 97,87 %
18.06.2021 12:10 30,0 C 32,2 C 30,6 C 62 % 1012,4 hPa 0,0 l/m 2 min 0 min 768 W/m 6,4 km/h (2 Bft) 95,65 %
18.06.2021 12:12 30,1 C 32,8 C 31,1 C 63 % 1012,4 hPa 0,0 l/m 2 min 0 min 774 W/m 9,7 km/h (2 Bft) 95,74 %
18.06.2021 12:14 30,2 C 32,8 C 31,7 C 62 % 1012,4 hPa 0,0 l/m 2 min 0 min 777 W/m 3,2 km/h (1 Bft) 97,87 %
18.06.2021 12:16 30,3 C 32,8 C 32,8 C 63 % 1012,4 hPa 0,0 l/m 2 min 0 min 785 W/m 12,9 km/h (3 Bft) 97,87 %
18.06.2021 12:18 30,4 C 33,3 C 33,9 C 62 % 1012,4 hPa 0,0 l/m 2 min 0 min 795 W/m 6,4 km/h (2 Bft) 95,74 %
18.06.2021 12:20 30,5 C 32,8 C 33,9 C 60 % 1012,3 hPa 0,0 l/m 2 min 0 min 793 W/m 6,4 km/h (2 Bft) 97,87 %
18.06.2021 12:22 30,5 C 32,8 C 34,5 C 61 % 1012,3 hPa 0,0 l/m 2 min 0 min 788 W/m 12,9 km/h (3 Bft) 93,48 %
18.06.2021 12:24 30,6 C 32,8 C 34,5 C 60 % 1012,3 hPa 0,0 l/m 2 min 0 min 808 W/m 6,4 km/h (2 Bft) 95,74 %
18.06.2021 12:26 30,6 C 32,2 C 35,6 C 59 % 1012,4 hPa 0,0 l/m 2 min 0 min 827 W/m 12,9 km/h (3 Bft) 95,74 %
18.06.2021 12:28 30,7 C 32,8 C 36,1 C 59 % 1012,4 hPa 0,0 l/m 2 min 0 min 823 W/m 6,4 km/h (2 Bft) 95,74 %
18.06.2021 12:30 30,8 C 32,2 C 36,7 C 58 % 1012,4 hPa 0,0 l/m 2 min 0 min 821 W/m 6,4 km/h (2 Bft) 97,87 %
18.06.2021 12:32 30,8 C 32,8 C 37,3 C 58 % 1012,4 hPa 0,0 l/m 2 min 0 min 813 W/m 6,4 km/h (2 Bft) 93,62 %
18.06.2021 12:34 30,9 C 32,8 C 37,3 C 58 % 1012,4 hPa 0,0 l/m 2 min 0 min 822 W/m 6,4 km/h (2 Bft) 93,48 %
18.06.2021 12:36 31,0 C 33,3 C 37,3 C 60 % 1012,3 hPa 0,0 l/m 2 min 0 min 837 W/m 6,4 km/h (2 Bft) 97,87 %
18.06.2021 12:38 31,1 C 33,9 C 36,7 C 59 % 1012,4 hPa 0,0 l/m 2 min 0 min 841 W/m 6,4 km/h (2 Bft) 97,87 %
18.06.2021 12:40 31,3 C 33,3 C 37,3 C 58 % 1012,3 hPa 0,0 l/m 2 min 0 min 799 W/m 6,4 km/h (2 Bft) 95,74 %
18.06.2021 12:42 31,3 C 32,8 C 35,6 C 57 % 1012,3 hPa 0,0 l/m 2 min 0 min 700 W/m 12,9 km/h (3 Bft) 95,74 %
18.06.2021 12:44 31,3 C 32,8 C 36,7 C 58 % 1012,3 hPa 0,0 l/m 2 min 0 min 698 W/m 12,9 km/h (3 Bft) 87,23 %
18.06.2021 12:46 31,3 C 32,8 C 37,8 C 57 % 1012,2 hPa 0,0 l/m 2 min 0 min 849 W/m 6,4 km/h (2 Bft) 96,15 %
18.06.2021 12:48 31,3 C 32,8 C 38,9 C 57 % 1012,2 hPa 0,0 l/m 2 min 0 min 880 W/m 3,2 km/h (1 Bft) 89,36 %
18.06.2021 12:50 31,4 C 33,3 C 38,9 C 59 % 1012,3 hPa 0,0 l/m 2 min 0 min 929 W/m 6,4 km/h (2 Bft) 95,74 %
18.06.2021 12:52 31,5 C 33,3 C 36,7 C 58 % 1012,3 hPa 0,0 l/m 2 min 0 min 614 W/m 6,4 km/h (2 Bft) 93,62 %
18.06.2021 12:54 31,5 C 33,9 C 36,7 C 58 % 1012,2 hPa 0,0 l/m 2 min 0 min 521 W/m 3,2 km/h (1 Bft) 97,87 %
18.06.2021 12:56 31,6 C 33,9 C 37,3 C 58 % 1012,2 hPa 0,0 l/m 2 min 0 min 636 W/m 9,7 km/h (2 Bft) 93,48 %
18.06.2021 12:58 31,7 C 33,9 C 38,9 C 57 % 1012,2 hPa 0,0 l/m 2 min 0 min 917 W/m 9,7 km/h (2 Bft) 97,56 %
18.06.2021 13:00 31,8 C 33,9 C 38,9 C 57 % 1012,2 hPa 0,0 l/m 2 min 0 min 946 W/m 6,4 km/h (2 Bft) 93,62 %
18.06.2021 13:02 31,9 C 33,9 C 37,8 C 57 % 1012,2 hPa 0,0 l/m 2 min 0 min 952 W/m 12,9 km/h (3 Bft) 94,34 %
18.06.2021 13:04 32,0 C 33,3 C 37,8 C 54 % 1012,3 hPa 0,0 l/m 2 min 0 min 952 W/m 19,3 km/h (3 Bft) 93,62 %
18.06.2021 13:06 32,0 C 32,8 C 37,8 C 53 % 1012,3 hPa 0,0 l/m 2 min 0 min 943 W/m 12,9 km/h (3 Bft) 95,74 %
18.06.2021 13:08 32,0 C 33,3 C 39,5 C 54 % 1012,3 hPa 0,0 l/m 2 min 0 min 1006 W/m 9,7 km/h (2 Bft) 95,65 %
18.06.2021 13:10 32,1 C 33,9 C 39,5 C 55 % 1012,3 hPa 0,0 l/m 2 min 0 min 1006 W/m 12,9 km/h (3 Bft) 95,74 %
18.06.2021 13:12 32,3 C 33,3 C 39,5 C 56 % 1012,3 hPa 0,0 l/m 2 min 0 min 1000 W/m 16,1 km/h (3 Bft) 93,62 %
18.06.2021 13:14 32,4 C 33,9 C 39,5 C 55 % 1012,3 hPa 0,0 l/m 2 min 0 min 1005 W/m 19,3 km/h (3 Bft) 93,62 %
18.06.2021 13:16 32,5 C 33,9 C 39,5 C 55 % 1012,3 hPa 0,0 l/m 2 min 0 min 1041 W/m 12,9 km/h (3 Bft) 95,74 %
18.06.2021 13:18 32,4 C 32,8 C 36,1 C 53 % 1012,3 hPa 0,0 l/m 2 min 0 min 815 W/m 19,3 km/h (3 Bft) 95,65 %
18.06.2021 13:20 32,4 C 32,8 C 35,6 C 53 % 1012,3 hPa 0,0 l/m 2 min 0 min 612 W/m 12,9 km/h (3 Bft) 97,87 %
18.06.2021 13:22 32,3 C 32,8 C 36,1 C 54 % 1012,3 hPa 0,0 l/m 2 min 0 min 675 W/m 12,9 km/h (3 Bft) 95,74 %
18.06.2021 13:24 32,4 C 32,8 C 37,3 C 54 % 1012,3 hPa 0,0 l/m 2 min 0 min 831 W/m 12,9 km/h (3 Bft) 95,74 %
18.06.2021 13:26 32,4 C 33,3 C 38,4 C 54 % 1012,2 hPa 0,0 l/m 2 min 0 min 1017 W/m 16,1 km/h (3 Bft) 97,87 %
18.06.2021 13:28 32,5 C 33,3 C 37,3 C 53 % 1012,2 hPa 0,0 l/m 2 min 0 min 1021 W/m 16,1 km/h (3 Bft) 97,87 %
18.06.2021 13:30 32,5 C 32,8 C 35,6 C 53 % 1012,2 hPa 0,0 l/m 2 min 0 min 459 W/m 9,7 km/h (2 Bft) 97,87 %
18.06.2021 13:32 32,4 C 32,8 C 34,5 C 53 % 1012,2 hPa 0,0 l/m 0 min 0 min 409 W/m 12,9 km/h (3 Bft) 97,83 %
18.06.2021 13:34 32,4 C 32,8 C 35,0 C 53 % 1012,2 hPa 0,0 l/m 2 min 0 min 665 W/m 6,4 km/h (2 Bft) 95,74 %
18.06.2021 13:36 32,4 C 32,8 C 34,5 C 53 % 1012,1 hPa 0,0 l/m 2 min 0 min 775 W/m 12,9 km/h (3 Bft) 97,87 %
18.06.2021 13:38 32,3 C 32,8 C 32,8 C 53 % 1012,1 hPa 0,0 l/m 0 min 0 min 435 W/m 12,9 km/h (3 Bft) 97,37 %
18.06.2021 13:40 32,3 C 32,8 C 33,4 C 52 % 1012,1 hPa 0,0 l/m 2 min 0 min 556 W/m 12,9 km/h (3 Bft) 97,87 %
18.06.2021 13:42 32,2 C 32,8 C 33,4 C 52 % 1012,1 hPa 0,0 l/m 2 min 0 min 701 W/m 16,1 km/h (3 Bft) 97,87 %
18.06.2021 13:44 32,2 C 32,8 C 33,4 C 52 % 1012,1 hPa 0,0 l/m 2 min 0 min 499 W/m 12,9 km/h (3 Bft) 97,83 %
18.06.2021 13:46 32,1 C 32,8 C 33,4 C 53 % 1012,1 hPa 0,0 l/m 2 min 0 min 527 W/m 9,7 km/h (2 Bft) 97,87 %
18.06.2021 13:48 32,2 C 32,8 C 33,4 C 53 % 1012,1 hPa 0,0 l/m 2 min 0 min 527 W/m 9,7 km/h (2 Bft) 95,74 %
18.06.2021 13:50 32,2 C 32,8 C 33,4 C 54 % 1012,0 hPa 0,0 l/m 2 min 0 min 515 W/m 6,4 km/h (2 Bft) 97,87 %
18.06.2021 13:52 32,3 C 32,8 C 33,9 C 54 % 1012,0 hPa 0,0 l/m 2 min 0 min 532 W/m 6,4 km/h (2 Bft) 97,87 %
18.06.2021 13:54 32,3 C 33,3 C 34,5 C 55 % 1012,0 hPa 0,0 l/m 2 min 0 min 646 W/m 6,4 km/h (2 Bft) 97,87 %
18.06.2021 13:56 32,3 C 33,9 C 34,5 C 54 % 1011,9 hPa 0,0 l/m 2 min 0 min 958 W/m 6,4 km/h (2 Bft) 95,65 %
18.06.2021 13:58 32,4 C 34,4 C 34,5 C 55 % 1012,0 hPa 0,0 l/m 2 min 0 min 904 W/m 12,9 km/h (3 Bft) 97,87 %
18.06.2021 14:00 32,5 C 34,4 C 33,9 C 53 % 1011,9 hPa 0,0 l/m 2 min 0 min 888 W/m 12,9 km/h (3 Bft) 97,87 %
18.06.2021 14:02 32,6 C 34,4 C 33,9 C 53 % 1011,9 hPa 0,0 l/m 2 min 0 min 883 W/m 9,7 km/h (2 Bft) 97,87 %
18.06.2021 14:04 32,6 C 34,4 C 33,4 C 52 % 1011,9 hPa 0,0 l/m 2 min 0 min 886 W/m 9,7 km/h (2 Bft) 97,87 %
18.06.2021 14:06 32,8 C 35,0 C 32,8 C 53 % 1011,9 hPa 0,0 l/m 2 min 0 min 886 W/m 12,9 km/h (3 Bft) 95,74 %
18.06.2021 14:08 32,9 C 35,0 C 32,3 C 52 % 1012,0 hPa 0,0 l/m 2 min 0 min 883 W/m 6,4 km/h (2 Bft) 91,84 %
18.06.2021 14:10 33,0 C 35,0 C 32,3 C 52 % 1012,0 hPa 0,0 l/m 2 min 0 min 882 W/m 12,9 km/h (3 Bft) 97,87 %
18.06.2021 14:12 33,0 C 35,0 C 31,7 C 52 % 1011,9 hPa 0,0 l/m 2 min 0 min 882 W/m 6,4 km/h (2 Bft) 100,00 %
18.06.2021 14:14 33,0 C 35,0 C 31,7 C 52 % 1011,9 hPa 0,0 l/m 2 min 0 min 878 W/m 9,7 km/h (2 Bft) 100,00 %
18.06.2021 14:16 33,1 C 35,6 C 31,7 C 50 % 1011,9 hPa 0,0 l/m 2 min 0 min 881 W/m 12,9 km/h (3 Bft) 97,87 %
18.06.2021 14:18 33,1 C 35,6 C 31,7 C 50 % 1011,9 hPa 0,0 l/m 2 min 0 min 882 W/m 12,9 km/h (3 Bft) 97,87 %
18.06.2021 14:20 33,3 C 35,6 C 31,7 C 49 % 1011,9 hPa 0,0 l/m 2 min 0 min 883 W/m 12,9 km/h (3 Bft) 100,00 %
18.06.2021 14:22 33,3 C 35,0 C 31,1 C 49 % 1011,9 hPa 0,0 l/m 2 min 0 min 880 W/m 12,9 km/h (3 Bft) 100,00 %
18.06.2021 14:24 33,3 C 35,0 C 31,1 C 50 % 1011,8 hPa 0,0 l/m 2 min 0 min 877 W/m 12,9 km/h (3 Bft) 100,00 %
18.06.2021 14:26 33,4 C 35,6 C 31,1 C 50 % 1011,9 hPa 0,0 l/m 2 min 0 min 887 W/m 16,1 km/h (3 Bft) 100,00 %
18.06.2021 14:28 33,4 C 35,0 C 31,1 C 50 % 1011,9 hPa 0,0 l/m 2 min 0 min 888 W/m 16,1 km/h (3 Bft) 100,00 %
18.06.2021 14:30 33,4 C 35,6 C 31,1 C 50 % 1011,8 hPa 0,0 l/m 2 min 0 min 886 W/m 16,1 km/h (3 Bft) 100,00 %
18.06.2021 14:32 33,5 C 35,6 C 31,1 C 50 % 1011,8 hPa 0,0 l/m 2 min 0 min 880 W/m 12,9 km/h (3 Bft) 100,00 %
18.06.2021 14:34 33,6 C 36,1 C 31,1 C 50 % 1011,8 hPa 0,0 l/m 2 min 0 min 876 W/m 22,5 km/h (4 Bft) 100,00 %
18.06.2021 14:36 33,6 C 35,6 C 31,1 C 49 % 1011,8 hPa 0,0 l/m 2 min 0 min 874 W/m 22,5 km/h (4 Bft) 100,00 %
18.06.2021 14:38 33,6 C 35,6 C 31,1 C 48 % 1011,7 hPa 0,0 l/m 2 min 0 min 873 W/m 16,1 km/h (3 Bft) 95,74 %
18.06.2021 14:40 33,6 C 35,0 C 30,6 C 49 % 1011,7 hPa 0,0 l/m 2 min 0 min 869 W/m 12,9 km/h (3 Bft) 93,62 %
18.06.2021 14:42 33,6 C 34,4 C 30,6 C 48 % 1011,6 hPa 0,0 l/m 2 min 0 min 869 W/m 16,1 km/h (3 Bft) 97,83 %
18.06.2021 14:44 33,5 C 35,0 C 30,6 C 48 % 1011,6 hPa 0,0 l/m 2 min 0 min 879 W/m 12,9 km/h (3 Bft) 97,87 %
18.06.2021 14:46 33,5 C 35,0 C 30,6 C 49 % 1011,6 hPa 0,0 l/m 2 min 0 min 732 W/m 12,9 km/h (3 Bft) 98,11 %
18.06.2021 14:48 33,6 C 35,6 C 30,6 C 49 % 1011,6 hPa 0,0 l/m 2 min 0 min 934 W/m 6,4 km/h (2 Bft) 95,74 %
18.06.2021 14:50 33,6 C 35,6 C 30,6 C 49 % 1011,6 hPa 0,0 l/m 2 min 0 min 824 W/m 12,9 km/h (3 Bft) 95,74 %
18.06.2021 14:52 33,6 C 35,0 C 30,6 C 49 % 1011,6 hPa 0,0 l/m 2 min 0 min 601 W/m 12,9 km/h (3 Bft) 95,65 %
18.06.2021 14:54 33,6 C 34,4 C 30,6 C 49 % 1011,6 hPa 0,0 l/m 2 min 0 min 571 W/m 12,9 km/h (3 Bft) 95,74 %
18.06.2021 14:56 33,5 C 34,4 C 30,6 C 49 % 1011,6 hPa 0,0 l/m 2 min 0 min 439 W/m 9,7 km/h (2 Bft) 95,74 %
18.06.2021 14:58 33,5 C 35,0 C 31,1 C 49 % 1011,5 hPa 0,0 l/m 2 min 0 min 703 W/m 12,9 km/h (3 Bft) 97,87 %
18.06.2021 15:00 33,5 C 35,6 C 31,1 C 49 % 1011,4 hPa 0,0 l/m 2 min 0 min 930 W/m 16,1 km/h (3 Bft) 93,62 %
18.06.2021 15:02 33,6 C 36,1 C 31,1 C 50 % 1011,4 hPa 0,0 l/m 2 min 0 min 891 W/m 6,4 km/h (2 Bft) 97,92 %
18.06.2021 15:04 33,7 C 36,1 C 31,1 C 48 % 1011,3 hPa 0,0 l/m 2 min 0 min 876 W/m 19,3 km/h (3 Bft) 95,65 %
18.06.2021 15:06 33,7 C 35,6 C 30,6 C 47 % 1011,3 hPa 0,0 l/m 2 min 0 min 872 W/m 16,1 km/h (3 Bft) 97,87 %
18.06.2021 15:08 33,8 C 36,1 C 31,1 C 47 % 1011,2 hPa 0,0 l/m 2 min 0 min 872 W/m 16,1 km/h (3 Bft) 97,87 %
18.06.2021 15:10 33,8 C 35,6 C 30,6 C 46 % 1011,3 hPa 0,0 l/m 2 min 0 min 864 W/m 12,9 km/h (3 Bft) 95,74 %
18.06.2021 15:12 33,8 C 36,1 C 30,6 C 47 % 1011,3 hPa 0,0 l/m 2 min 0 min 870 W/m 12,9 km/h (3 Bft) 91,49 %
18.06.2021 15:14 33,8 C 35,6 C 30,6 C 47 % 1011,3 hPa 0,0 l/m 2 min 0 min 878 W/m 16,1 km/h (3 Bft) 95,65 %
18.06.2021 15:16 33,9 C 35,6 C 31,1 C 48 % 1011,3 hPa 0,0 l/m 2 min 0 min 828 W/m 16,1 km/h (3 Bft) 93,62 %
18.06.2021 15:18 33,9 C 36,1 C 31,1 C 48 % 1011,3 hPa 0,0 l/m 2 min 0 min 775 W/m 9,7 km/h (2 Bft) 93,62 %
18.06.2021 15:20 34,0 C 35,6 C 31,1 C 47 % 1011,3 hPa 0,0 l/m 2 min 0 min 823 W/m 16,1 km/h (3 Bft) 95,74 %
18.06.2021 15:22 34,0 C 35,0 C 31,1 C 47 % 1011,3 hPa 0,0 l/m 2 min 0 min 900 W/m 16,1 km/h (3 Bft) 95,74 %
18.06.2021 15:24 34,0 C 35,6 C 31,1 C 48 % 1011,3 hPa 0,0 l/m 2 min 0 min 888 W/m 9,7 km/h (2 Bft) 97,87 %
18.06.2021 15:26 34,0 C 36,1 C 31,1 C 47 % 1011,2 hPa 0,0 l/m 2 min 0 min 872 W/m 12,9 km/h (3 Bft) 97,44 %
18.06.2021 15:28 34,1 C 36,7 C 31,1 C 48 % 1011,1 hPa 0,0 l/m 2 min 0 min 850 W/m 9,7 km/h (2 Bft) 95,65 %
18.06.2021 15:30 34,1 C 36,7 C 31,7 C 47 % 1011,1 hPa 0,0 l/m 2 min 0 min 844 W/m 9,7 km/h (2 Bft) 97,87 %
18.06.2021 15:32 34,3 C 36,7 C 31,7 C 47 % 1011,0 hPa 0,0 l/m 2 min 0 min 841 W/m 19,3 km/h (3 Bft) 95,83 %
18.06.2021 15:34 34,3 C 36,1 C 31,7 C 47 % 1011,0 hPa 0,0 l/m 2 min 0 min 831 W/m 9,7 km/h (2 Bft) 97,87 %
18.06.2021 15:36 34,4 C 36,7 C 31,7 C 47 % 1011,0 hPa 0,0 l/m 2 min 0 min 820 W/m 9,7 km/h (2 Bft) 97,87 %
18.06.2021 15:38 34,5 C 36,7 C 31,7 C 47 % 1011,0 hPa 0,0 l/m 2 min 0 min 807 W/m 16,1 km/h (3 Bft) 97,87 %
18.06.2021 15:40 34,6 C 36,7 C 31,7 C 46 % 1011,0 hPa 0,0 l/m 2 min 0 min 791 W/m 19,3 km/h (3 Bft) 97,83 %
18.06.2021 15:42 34,5 C 36,1 C 31,7 C 47 % 1011,0 hPa 0,0 l/m 2 min 0 min 787 W/m 16,1 km/h (3 Bft) 97,87 %
18.06.2021 15:44 34,6 C 36,1 C 31,1 C 46 % 1011,0 hPa 0,0 l/m 2 min 0 min 783 W/m 12,9 km/h (3 Bft) 97,87 %
18.06.2021 15:46 34,6 C 35,6 C 31,1 C 46 % 1010,9 hPa 0,0 l/m 2 min 0 min 779 W/m 12,9 km/h (3 Bft) 97,87 %
18.06.2021 15:48 34,5 C 35,6 C 31,1 C 47 % 1010,9 hPa 0,0 l/m 2 min 0 min 771 W/m 19,3 km/h (3 Bft) 97,87 %
18.06.2021 15:50 34,5 C 35,0 C 30,6 C 47 % 1011,0 hPa 0,0 l/m 2 min 0 min 772 W/m 22,5 km/h (4 Bft) 97,87 %
18.06.2021 15:52 34,4 C 35,0 C 31,1 C 47 % 1010,9 hPa 0,0 l/m 2 min 0 min 763 W/m 16,1 km/h (3 Bft) 97,83 %
18.06.2021 15:54 34,5 C 35,6 C 31,1 C 47 % 1010,9 hPa 0,0 l/m 2 min 0 min 757 W/m 19,3 km/h (3 Bft) 95,74 %
18.06.2021 15:56 34,5 C 36,7 C 31,1 C 47 % 1010,9 hPa 0,0 l/m 2 min 0 min 754 W/m 6,4 km/h (2 Bft) 97,87 %
18.06.2021 15:58 34,5 C 36,7 C 31,1 C 47 % 1010,9 hPa 0,0 l/m 2 min 0 min 745 W/m 16,1 km/h (3 Bft) 100,00 %
18.06.2021 16:00 34,5 C 36,1 C 31,1 C 46 % 1010,9 hPa 0,0 l/m 2 min 0 min 746 W/m 22,5 km/h (4 Bft) 100,00 %
18.06.2021 16:02 34,4 C 35,6 C 31,1 C 46 % 1011,0 hPa 0,0 l/m 2 min 0 min 745 W/m 19,3 km/h (3 Bft) 100,00 %
18.06.2021 16:04 34,4 C 36,1 C 31,1 C 47 % 1011,0 hPa 0,0 l/m 2 min 0 min 757 W/m 12,9 km/h (3 Bft) 100,00 %
18.06.2021 16:06 34,4 C 35,6 C 30,6 C 47 % 1010,9 hPa 0,0 l/m 2 min 0 min 759 W/m 19,3 km/h (3 Bft) 97,87 %
18.06.2021 16:08 34,3 C 36,1 C 30,6 C 47 % 1010,8 hPa 0,0 l/m 2 min 0 min 745 W/m 16,1 km/h (3 Bft) 97,87 %
18.06.2021 16:10 34,3 C 36,1 C 30,6 C 46 % 1010,9 hPa 0,0 l/m 2 min 0 min 749 W/m 19,3 km/h (3 Bft) 97,87 %
18.06.2021 16:12 34,3 C 36,7 C 31,1 C 47 % 1010,8 hPa 0,0 l/m 2 min 0 min 751 W/m 19,3 km/h (3 Bft) 100,00 %
18.06.2021 16:14 34,3 C 36,7 C 30,6 C 46 % 1010,8 hPa 0,0 l/m 2 min 0 min 745 W/m 12,9 km/h (3 Bft) 100,00 %
18.06.2021 16:16 34,3 C 36,7 C 30,6 C 46 % 1010,8 hPa 0,0 l/m 2 min 0 min 745 W/m 19,3 km/h (3 Bft) 100,00 %
18.06.2021 16:18 34,2 C 36,7 C 30,6 C 46 % 1010,8 hPa 0,0 l/m 2 min 0 min 748 W/m 12,9 km/h (3 Bft) 100,00 %
18.06.2021 16:20 34,3 C 37,2 C 30,6 C 47 % 1010,8 hPa 0,0 l/m 2 min 0 min 742 W/m 12,9 km/h (3 Bft) 100,00 %
18.06.2021 16:22 34,3 C 37,2 C 31,1 C 47 % 1010,8 hPa 0,0 l/m 2 min 0 min 736 W/m 12,9 km/h (3 Bft) 97,87 %
18.06.2021 16:24 34,4 C 37,8 C 31,1 C 46 % 1010,7 hPa 0,0 l/m 2 min 0 min 735 W/m 12,9 km/h (3 Bft) 100,00 %
18.06.2021 16:26 34,4 C 37,8 C 31,1 C 46 % 1010,6 hPa 0,0 l/m 2 min 0 min 730 W/m 16,1 km/h (3 Bft) 97,87 %
18.06.2021 16:28 34,5 C 37,8 C 31,1 C 46 % 1010,7 hPa 0,0 l/m 2 min 0 min 728 W/m 16,1 km/h (3 Bft) 100,00 %
18.06.2021 16:30 34,5 C 36,7 C 31,1 C 45 % 1010,6 hPa 0,0 l/m 2 min 0 min 727 W/m 19,3 km/h (3 Bft) 100,00 %
18.06.2021 16:32 34,4 C 36,7 C 31,1 C 45 % 1010,6 hPa 0,0 l/m 2 min 0 min 728 W/m 19,3 km/h (3 Bft) 100,00 %
18.06.2021 16:34 34,4 C 36,7 C 31,1 C 45 % 1010,6 hPa 0,0 l/m 2 min 0 min 707 W/m 19,3 km/h (3 Bft) 100,00 %
18.06.2021 16:36 34,4 C 35,6 C 30,6 C 46 % 1010,5 hPa 0,0 l/m 2 min 0 min 456 W/m 12,9 km/h (3 Bft) 100,00 %
18.06.2021 16:38 34,3 C 35,0 C 30,6 C 46 % 1010,5 hPa 0,0 l/m 0 min 0 min 203 W/m 16,1 km/h (3 Bft) 100,00 %
18.06.2021 16:40 34,3 C 34,4 C 30,6 C 47 % 1010,4 hPa 0,0 l/m 0 min 0 min 198 W/m 22,5 km/h (4 Bft) 100,00 %
18.06.2021 16:42 34,2 C 33,9 C 30,6 C 47 % 1010,5 hPa 0,0 l/m 0 min 0 min 222 W/m 12,9 km/h (3 Bft) 100,00 %
18.06.2021 16:44 34,1 C 34,4 C 30,6 C 47 % 1010,5 hPa 0,0 l/m 0 min 0 min 248 W/m 12,9 km/h (3 Bft) 100,00 %
18.06.2021 16:46 34,0 C 34,4 C 30,6 C 47 % 1010,4 hPa 0,0 l/m 0 min 0 min 248 W/m 9,7 km/h (2 Bft) 100,00 %
18.06.2021 16:48 34,0 C 34,4 C 30,6 C 47 % 1010,4 hPa 0,0 l/m 0 min 0 min 251 W/m 16,1 km/h (3 Bft) 100,00 %
18.06.2021 16:50 33,9 C 34,4 C 30,6 C 48 % 1010,3 hPa 0,0 l/m 0 min 0 min 266 W/m 9,7 km/h (2 Bft) 100,00 %
18.06.2021 16:52 33,9 C 33,3 C 30,6 C 47 % 1010,3 hPa 0,0 l/m 0 min 0 min 188 W/m 12,9 km/h (3 Bft) 100,00 %
18.06.2021 16:54 33,8 C 32,8 C 30,6 C 47 % 1010,4 hPa 0,0 l/m 0 min 0 min 141 W/m 12,9 km/h (3 Bft) 97,87 %
18.06.2021 16:56 33,8 C 32,8 C 30,0 C 48 % 1010,3 hPa 0,0 l/m 0 min 0 min 148 W/m 16,1 km/h (3 Bft) 95,74 %
18.06.2021 16:58 33,6 C 32,2 C 30,0 C 47 % 1010,3 hPa 0,0 l/m 0 min 0 min 143 W/m 16,1 km/h (3 Bft) 97,87 %
18.06.2021 17:00 33,5 C 32,2 C 29,5 C 48 % 1010,3 hPa 0,0 l/m 0 min 0 min 124 W/m 12,9 km/h (3 Bft) 100,00 %
18.06.2021 17:02 33,4 C 31,7 C 29,5 C 47 % 1010,4 hPa 0,0 l/m 0 min 0 min 122 W/m 16,1 km/h (3 Bft) 97,83 %
18.06.2021 17:04 33,2 C 31,7 C 29,5 C 47 % 1010,3 hPa 0,0 l/m 0 min 0 min 134 W/m 16,1 km/h (3 Bft) 97,87 %
18.06.2021 17:06 33,1 C 31,7 C 29,5 C 48 % 1010,3 hPa 0,0 l/m 0 min 0 min 137 W/m 12,9 km/h (3 Bft) 97,87 %
18.06.2021 17:08 33,0 C 31,7 C 28,9 C 48 % 1010,3 hPa 0,0 l/m 0 min 0 min 146 W/m 12,9 km/h (3 Bft) 97,67 %
18.06.2021 17:10 32,9 C 33,9 C 29,5 C 49 % 1010,2 hPa 0,0 l/m 0 min 0 min 306 W/m 6,4 km/h (2 Bft) 98,04 %
18.06.2021 17:12 32,9 C 35,0 C 29,5 C 49 % 1010,2 hPa 0,0 l/m 2 min 0 min 622 W/m 6,4 km/h (2 Bft) 97,87 %
18.06.2021 17:14 33,0 C 34,4 C 29,5 C 50 % 1010,2 hPa 0,0 l/m 2 min 0 min 624 W/m 12,9 km/h (3 Bft) 97,83 %
18.06.2021 17:16 33,0 C 35,0 C 30,0 C 50 % 1010,1 hPa 0,0 l/m 2 min 0 min 371 W/m 12,9 km/h (3 Bft) 95,74 %
18.06.2021 17:18 33,1 C 34,4 C 30,0 C 50 % 1010,0 hPa 0,0 l/m 0 min 0 min 299 W/m 19,3 km/h (3 Bft) 95,74 %
18.06.2021 17:20 33,1 C 35,0 C 30,0 C 48 % 1010,0 hPa 0,0 l/m 2 min 0 min 340 W/m 19,3 km/h (3 Bft) 95,74 %
18.06.2021 17:22 33,3 C 35,0 C 30,0 C 47 % 1010,0 hPa 0,0 l/m 2 min 0 min 571 W/m 22,5 km/h (4 Bft) 95,74 %
18.06.2021 17:24 33,3 C 35,6 C 30,0 C 48 % 1009,9 hPa 0,0 l/m 2 min 0 min 581 W/m 16,1 km/h (3 Bft) 95,74 %
18.06.2021 17:26 33,4 C 35,0 C 30,6 C 48 % 1009,9 hPa 0,0 l/m 2 min 0 min 517 W/m 19,3 km/h (3 Bft) 95,65 %
18.06.2021 17:28 33,4 C 33,9 C 30,0 C 48 % 1010,0 hPa 0,0 l/m 0 min 0 min 179 W/m 16,1 km/h (3 Bft) 97,87 %
18.06.2021 17:30 33,4 C 33,9 C 30,0 C 48 % 1010,0 hPa 0,0 l/m 0 min 0 min 233 W/m 22,5 km/h (4 Bft) 93,62 %
18.06.2021 17:32 33,4 C 33,3 C 30,0 C 48 % 1010,0 hPa 0,0 l/m 2 min 0 min 340 W/m 22,5 km/h (4 Bft) 95,74 %
18.06.2021 17:34 33,3 C 32,8 C 30,0 C 49 % 1010,0 hPa 0,0 l/m 0 min 0 min 188 W/m 25,7 km/h (4 Bft) 93,62 %
18.06.2021 17:36 33,2 C 32,2 C 30,0 C 48 % 1010,1 hPa 0,0 l/m 0 min 0 min 195 W/m 25,7 km/h (4 Bft) 95,65 %
18.06.2021 17:38 33,1 C 32,8 C 29,5 C 48 % 1010,1 hPa 0,0 l/m 0 min 0 min 241 W/m 16,1 km/h (3 Bft) 91,49 %
18.06.2021 17:40 33,1 C 33,9 C 30,0 C 48 % 1010,1 hPa 0,0 l/m 2 min 0 min 548 W/m 16,1 km/h (3 Bft) 95,74 %
18.06.2021 17:42 33,1 C 35,6 C 30,0 C 49 % 1010,0 hPa 0,0 l/m 2 min 0 min 626 W/m 12,9 km/h (3 Bft) 95,74 %
18.06.2021 17:44 33,2 C 35,6 C 28,9 C 51 % 1010,0 hPa 0,0 l/m 2 min 2 min 651 W/m 19,3 km/h (3 Bft) 95,74 %
18.06.2021 17:46 33,3 C 35,0 C 24,5 C 58 % 1010,1 hPa 0,0 l/m 2 min 2 min 607 W/m 22,5 km/h (4 Bft) 91,49 %
18.06.2021 17:48 33,1 C 33,3 C 22,8 C 59 % 1010,1 hPa 0,2 l/m 2 min 2 min 589 W/m 19,3 km/h (3 Bft) 95,65 %
18.06.2021 17:50 32,8 C 32,8 C 21,7 C 58 % 1010,1 hPa 0,0 l/m 2 min 2 min 347 W/m 16,1 km/h (3 Bft) 95,74 %
18.06.2021 17:52 32,6 C 31,7 C 22,3 C 59 % 1010,1 hPa 0,0 l/m 0 min 0 min 176 W/m 6,4 km/h (2 Bft) 93,62 %
18.06.2021 17:54 32,5 C 31,1 C 22,3 C 59 % 1010,0 hPa 0,0 l/m 0 min 2 min 143 W/m 22,5 km/h (4 Bft) 95,74 %
18.06.2021 17:56 32,3 C 31,1 C 22,3 C 61 % 1010,0 hPa 0,0 l/m 0 min 2 min 200 W/m 9,7 km/h (2 Bft) 91,49 %
18.06.2021 17:58 32,1 C 32,2 C 22,3 C 61 % 1010,0 hPa 0,0 l/m 2 min 2 min 334 W/m 3,2 km/h (1 Bft) 97,87 %
18.06.2021 18:00 32,0 C 33,3 C 22,8 C 62 % 1009,9 hPa 0,0 l/m 2 min 0 min 503 W/m 6,4 km/h (2 Bft) 100,00 %
18.06.2021 18:02 31,9 C 33,9 C 22,8 C 62 % 1009,9 hPa 0,0 l/m 2 min 0 min 493 W/m 19,3 km/h (3 Bft) 97,87 %
18.06.2021 18:04 31,9 C 34,4 C 23,4 C 62 % 1009,9 hPa 0,0 l/m 2 min 0 min 487 W/m 6,4 km/h (2 Bft) 95,74 %
18.06.2021 18:08 32,0 C 35,6 C 23,4 C 59 % 1009,8 hPa 0,0 l/m 4 min 0 min 475 W/m 12,9 km/h (3 Bft) 98,94 %
18.06.2021 18:10 32,0 C 35,6 C 24,5 C 60 % 1009,7 hPa 0,0 l/m 2 min 0 min 453 W/m 19,3 km/h (3 Bft) 100,00 %
18.06.2021 18:12 32,0 C 35,0 C 24,5 C 58 % 1009,7 hPa 0,0 l/m 2 min 0 min 383 W/m 16,1 km/h (3 Bft) 100,00 %
18.06.2021 18:14 32,0 C 34,4 C 25,6 C 57 % 1009,7 hPa 0,0 l/m 2 min 0 min 313 W/m 19,3 km/h (3 Bft) 95,74 %
18.06.2021 18:16 32,1 C 34,4 C 26,7 C 56 % 1009,7 hPa 0,0 l/m 2 min 0 min 402 W/m 12,9 km/h (3 Bft) 97,87 %
18.06.2021 18:18 32,1 C 34,4 C 27,3 C 54 % 1009,7 hPa 0,0 l/m 2 min 0 min 418 W/m 19,3 km/h (3 Bft) 95,74 %
18.06.2021 18:20 32,1 C 34,4 C 27,3 C 54 % 1009,7 hPa 0,0 l/m 2 min 0 min 418 W/m 16,1 km/h (3 Bft) 95,74 %
18.06.2021 18:22 32,1 C 34,4 C 27,8 C 52 % 1009,7 hPa 0,0 l/m 2 min 0 min 411 W/m 22,5 km/h (4 Bft) 100,00 %
18.06.2021 18:24 32,3 C 34,4 C 28,4 C 53 % 1009,7 hPa 0,0 l/m 2 min 0 min 401 W/m 16,1 km/h (3 Bft) 97,83 %
18.06.2021 18:26 32,3 C 35,0 C 28,4 C 53 % 1009,7 hPa 0,0 l/m 2 min 0 min 393 W/m 16,1 km/h (3 Bft) 100,00 %
18.06.2021 18:28 32,4 C 35,0 C 28,9 C 52 % 1009,6 hPa 0,0 l/m 2 min 0 min 376 W/m 19,3 km/h (3 Bft) 97,87 %
18.06.2021 18:30 32,5 C 35,0 C 28,9 C 51 % 1009,6 hPa 0,0 l/m 2 min 0 min 402 W/m 19,3 km/h (3 Bft) 100,00 %
18.06.2021 18:32 32,5 C 35,0 C 28,9 C 51 % 1009,7 hPa 0,0 l/m 2 min 0 min 409 W/m 16,1 km/h (3 Bft) 100,00 %
18.06.2021 18:34 32,6 C 35,0 C 28,9 C 51 % 1009,5 hPa 0,0 l/m 2 min 0 min 386 W/m 12,9 km/h (3 Bft) 97,87 %
18.06.2021 18:36 32,6 C 35,0 C 28,9 C 51 % 1009,7 hPa 0,0 l/m 2 min 0 min 367 W/m 12,9 km/h (3 Bft) 100,00 %
18.06.2021 18:38 32,7 C 35,0 C 28,9 C 50 % 1009,7 hPa 0,0 l/m 2 min 0 min 385 W/m 12,9 km/h (3 Bft) 100,00 %
18.06.2021 18:40 32,8 C 35,0 C 29,5 C 51 % 1009,7 hPa 0,0 l/m 2 min 0 min 373 W/m 16,1 km/h (3 Bft) 100,00 %
18.06.2021 18:42 32,8 C 34,4 C 29,5 C 51 % 1009,7 hPa 0,0 l/m 2 min 0 min 271 W/m 12,9 km/h (3 Bft) 97,87 %
18.06.2021 18:44 32,8 C 33,3 C 28,9 C 50 % 1009,7 hPa 0,0 l/m 0 min 0 min 142 W/m 16,1 km/h (3 Bft) 97,83 %
18.06.2021 18:46 32,8 C 32,8 C 28,9 C 51 % 1009,7 hPa 0,0 l/m 0 min 0 min 117 W/m 16,1 km/h (3 Bft) 97,87 %
18.06.2021 18:48 32,7 C 32,2 C 28,9 C 51 % 1009,7 hPa 0,0 l/m 0 min 0 min 101 W/m 12,9 km/h (3 Bft) 97,87 %
18.06.2021 18:50 32,6 C 31,7 C 28,9 C 51 % 1009,7 hPa 0,0 l/m 0 min 0 min 107 W/m 6,4 km/h (2 Bft) 97,87 %
18.06.2021 18:52 32,6 C 31,7 C 28,4 C 51 % 1009,7 hPa 0,0 l/m 0 min 0 min 115 W/m 12,9 km/h (3 Bft) 95,74 %
18.06.2021 18:54 32,5 C 31,1 C 28,4 C 51 % 1009,7 hPa 0,0 l/m 0 min 0 min 120 W/m 12,9 km/h (3 Bft) 97,87 %
18.06.2021 18:56 32,4 C 32,2 C 28,4 C 51 % 1009,7 hPa 0,0 l/m 0 min 0 min 180 W/m 6,4 km/h (2 Bft) 97,83 %
18.06.2021 18:58 32,4 C 32,2 C 28,4 C 51 % 1009,7 hPa 0,0 l/m 2 min 0 min 233 W/m 16,1 km/h (3 Bft) 97,87 %
18.06.2021 19:00 32,3 C 32,2 C 28,4 C 52 % 1009,7 hPa 0,0 l/m 0 min 0 min 181 W/m 16,1 km/h (3 Bft) 97,87 %
18.06.2021 19:02 32,3 C 32,2 C 28,4 C 52 % 1009,7 hPa 0,0 l/m 2 min 0 min 213 W/m 12,9 km/h (3 Bft) 97,87 %
18.06.2021 19:04 32,3 C 32,2 C 28,4 C 53 % 1009,7 hPa 0,0 l/m 0 min 0 min 154 W/m 16,1 km/h (3 Bft) 97,87 %
18.06.2021 19:06 32,2 C 31,7 C 28,4 C 52 % 1009,7 hPa 0,0 l/m 0 min 0 min 101 W/m 12,9 km/h (3 Bft) 95,74 %
18.06.2021 19:08 32,1 C 31,1 C 28,4 C 53 % 1009,7 hPa 0,0 l/m 0 min 0 min 109 W/m 9,7 km/h (2 Bft) 97,83 %
18.06.2021 19:10 32,1 C 31,7 C 28,4 C 53 % 1009,8 hPa 0,0 l/m 0 min 0 min 181 W/m 9,7 km/h (2 Bft) 97,87 %
18.06.2021 19:12 32,1 C 31,7 C 28,4 C 53 % 1009,8 hPa 0,0 l/m 2 min 0 min 259 W/m 12,9 km/h (3 Bft) 97,87 %
18.06.2021 19:14 32,1 C 31,7 C 28,4 C 53 % 1009,8 hPa 0,0 l/m 0 min 0 min 170 W/m 12,9 km/h (3 Bft) 97,87 %
18.06.2021 19:16 32,1 C 31,7 C 28,9 C 54 % 1009,8 hPa 0,0 l/m 2 min 0 min 248 W/m 12,9 km/h (3 Bft) 97,87 %
18.06.2021 19:18 32,1 C 32,2 C 28,9 C 54 % 1009,8 hPa 0,0 l/m 2 min 0 min 331 W/m 12,9 km/h (3 Bft) 97,87 %
18.06.2021 19:20 32,1 C 32,2 C 28,9 C 54 % 1009,8 hPa 0,0 l/m 2 min 0 min 314 W/m 16,1 km/h (3 Bft) 97,83 %
18.06.2021 19:22 32,3 C 32,2 C 28,9 C 54 % 1009,9 hPa 0,0 l/m 2 min 0 min 228 W/m 12,9 km/h (3 Bft) 97,87 %
18.06.2021 19:24 32,3 C 31,7 C 28,9 C 54 % 1009,8 hPa 0,0 l/m 0 min 0 min 131 W/m 12,9 km/h (3 Bft) 97,87 %
18.06.2021 19:26 32,3 C 31,7 C 28,9 C 54 % 1009,9 hPa 0,0 l/m 0 min 0 min 125 W/m 12,9 km/h (3 Bft) 100,00 %
18.06.2021 19:28 32,2 C 31,7 C 28,9 C 54 % 1009,9 hPa 0,0 l/m 0 min 0 min 117 W/m 12,9 km/h (3 Bft) 97,87 %
18.06.2021 19:30 32,2 C 31,1 C 28,9 C 54 % 1009,9 hPa 0,0 l/m 0 min 0 min 125 W/m 16,1 km/h (3 Bft) 97,87 %
18.06.2021 19:32 32,1 C 31,1 C 28,4 C 53 % 1010,0 hPa 0,0 l/m 0 min 0 min 114 W/m 16,1 km/h (3 Bft) 97,83 %
18.06.2021 19:34 32,1 C 31,1 C 28,4 C 52 % 1010,1 hPa 0,0 l/m 0 min 0 min 143 W/m 25,7 km/h (4 Bft) 97,87 %
18.06.2021 19:36 32,1 C 31,1 C 28,4 C 52 % 1010,0 hPa 0,0 l/m 2 min 0 min 238 W/m 16,1 km/h (3 Bft) 97,87 %
18.06.2021 19:38 32,0 C 31,7 C 28,4 C 51 % 1010,0 hPa 0,0 l/m 2 min 0 min 186 W/m 19,3 km/h (3 Bft) 93,62 %
18.06.2021 19:40 32,0 C 31,1 C 28,4 C 51 % 1010,0 hPa 0,0 l/m 0 min 0 min 132 W/m 19,3 km/h (3 Bft) 97,87 %
18.06.2021 19:42 32,0 C 31,1 C 28,4 C 51 % 1010,0 hPa 0,0 l/m 0 min 0 min 129 W/m 19,3 km/h (3 Bft) 95,74 %
18.06.2021 19:44 31,9 C 31,1 C 28,4 C 51 % 1010,0 hPa 0,0 l/m 0 min 0 min 117 W/m 19,3 km/h (3 Bft) 95,65 %
18.06.2021 19:46 31,9 C 31,1 C 28,4 C 51 % 1010,0 hPa 0,0 l/m 0 min 0 min 108 W/m 12,9 km/h (3 Bft) 95,74 %
18.06.2021 19:48 31,9 C 31,1 C 28,4 C 51 % 1010,0 hPa 0,0 l/m 0 min 0 min 108 W/m 22,5 km/h (4 Bft) 95,74 %
18.06.2021 19:50 31,8 C 31,1 C 28,4 C 51 % 1010,0 hPa 0,0 l/m 2 min 0 min 198 W/m 19,3 km/h (3 Bft) 93,62 %
18.06.2021 19:52 31,8 C 31,1 C 28,4 C 51 % 1010,1 hPa 0,0 l/m 2 min 0 min 208 W/m 19,3 km/h (3 Bft) 93,62 %
18.06.2021 19:54 31,8 C 31,1 C 28,4 C 51 % 1010,1 hPa 0,0 l/m 2 min 0 min 189 W/m 19,3 km/h (3 Bft) 97,83 %
18.06.2021 19:56 31,8 C 31,1 C 28,4 C 51 % 1010,1 hPa 0,0 l/m 2 min 0 min 174 W/m 12,9 km/h (3 Bft) 93,62 %
18.06.2021 19:58 31,8 C 31,1 C 27,8 C 52 % 1010,1 hPa 0,0 l/m 2 min 0 min 165 W/m 19,3 km/h (3 Bft) 95,74 %
18.06.2021 20:00 31,7 C 30,6 C 27,8 C 52 % 1010,2 hPa 0,0 l/m 2 min 0 min 154 W/m 22,5 km/h (4 Bft) 97,87 %
18.06.2021 20:02 31,6 C 30,6 C 27,8 C 52 % 1010,2 hPa 0,0 l/m 0 min 0 min 119 W/m 12,9 km/h (3 Bft) 100,00 %
18.06.2021 20:04 31,6 C 30,6 C 27,8 C 53 % 1010,2 hPa 0,0 l/m 0 min 0 min 86 W/m 16,1 km/h (3 Bft) 97,87 %
18.06.2021 20:06 31,6 C 30,6 C 27,8 C 52 % 1010,2 hPa 0,0 l/m 0 min 0 min 82 W/m 16,1 km/h (3 Bft) 97,87 %
18.06.2021 20:08 31,5 C 30,6 C 27,8 C 52 % 1010,2 hPa 0,0 l/m 0 min 0 min 81 W/m 19,3 km/h (3 Bft) 95,65 %
18.06.2021 20:10 31,5 C 30,6 C 27,8 C 52 % 1010,2 hPa 0,0 l/m 0 min 0 min 79 W/m 16,1 km/h (3 Bft) 97,87 %
18.06.2021 20:12 31,5 C 30,6 C 27,8 C 52 % 1010,2 hPa 0,0 l/m 0 min 0 min 77 W/m 25,7 km/h (4 Bft) 95,74 %
18.06.2021 20:14 31,4 C 30,6 C 27,8 C 52 % 1010,3 hPa 0,0 l/m 0 min 0 min 75 W/m 19,3 km/h (3 Bft) 95,74 %
18.06.2021 20:16 31,4 C 30,6 C 27,8 C 52 % 1010,3 hPa 0,0 l/m 0 min 0 min 71 W/m 16,1 km/h (3 Bft) 95,74 %
18.06.2021 20:18 31,3 C 30,6 C 27,8 C 52 % 1010,3 hPa 0,0 l/m 0 min 0 min 70 W/m 35,4 km/h (5 Bft) 93,48 %
18.06.2021 20:20 31,3 C 30,0 C 27,8 C 52 % 1010,3 hPa 0,0 l/m 0 min 0 min 68 W/m 25,7 km/h (4 Bft) 95,74 %
18.06.2021 20:22 31,2 C 30,0 C 27,8 C 52 % 1010,3 hPa 0,0 l/m 0 min 0 min 64 W/m 25,7 km/h (4 Bft) 97,87 %
18.06.2021 20:24 31,1 C 30,0 C 27,3 C 52 % 1010,4 hPa 0,0 l/m 0 min 0 min 60 W/m 19,3 km/h (3 Bft) 97,87 %
18.06.2021 20:26 31,1 C 30,0 C 27,3 C 51 % 1010,4 hPa 0,0 l/m 0 min 0 min 57 W/m 29,0 km/h (5 Bft) 95,74 %
18.06.2021 20:28 31,0 C 30,0 C 27,3 C 51 % 1010,4 hPa 0,0 l/m 0 min 0 min 55 W/m 16,1 km/h (3 Bft) 95,74 %
18.06.2021 20:30 31,0 C 30,0 C 27,3 C 51 % 1010,4 hPa 0,0 l/m 0 min 0 min 53 W/m 25,7 km/h (4 Bft) 95,65 %
18.06.2021 20:32 30,9 C 30,0 C 27,3 C 51 % 1010,4 hPa 0,0 l/m 0 min 0 min 50 W/m 19,3 km/h (3 Bft) 97,87 %
18.06.2021 20:34 30,9 C 30,0 C 27,3 C 51 % 1010,4 hPa 0,0 l/m 0 min 0 min 48 W/m 22,5 km/h (4 Bft) 97,87 %
18.06.2021 20:36 30,8 C 29,4 C 27,3 C 52 % 1010,5 hPa 0,0 l/m 0 min 0 min 46 W/m 22,5 km/h (4 Bft) 95,74 %
18.06.2021 20:38 30,8 C 29,4 C 27,3 C 52 % 1010,5 hPa 0,0 l/m 0 min 0 min 44 W/m 22,5 km/h (4 Bft) 97,87 %
18.06.2021 20:40 30,7 C 29,4 C 27,3 C 53 % 1010,5 hPa 0,0 l/m 0 min 0 min 42 W/m 19,3 km/h (3 Bft) 97,87 %
18.06.2021 20:42 30,6 C 29,4 C 27,3 C 53 % 1010,5 hPa 0,0 l/m 0 min 0 min 40 W/m 22,5 km/h (4 Bft) 97,83 %
18.06.2021 20:44 30,6 C 29,4 C 26,7 C 53 % 1010,5 hPa 0,0 l/m 0 min 0 min 39 W/m 25,7 km/h (4 Bft) 97,87 %
18.06.2021 20:46 30,6 C 29,4 C 26,7 C 53 % 1010,4 hPa 0,0 l/m 0 min 0 min 38 W/m 16,1 km/h (3 Bft) 97,87 %
18.06.2021 20:48 30,5 C 29,4 C 26,7 C 53 % 1010,5 hPa 0,0 l/m 0 min 0 min 37 W/m 25,7 km/h (4 Bft) 97,87 %
18.06.2021 20:50 30,5 C 29,4 C 26,7 C 53 % 1010,5 hPa 0,0 l/m 0 min 0 min 35 W/m 19,3 km/h (3 Bft) 97,87 %
18.06.2021 20:52 30,4 C 29,4 C 26,7 C 53 % 1010,5 hPa 0,0 l/m 0 min 0 min 35 W/m 19,3 km/h (3 Bft) 97,87 %
18.06.2021 20:54 30,4 C 28,9 C 26,7 C 54 % 1010,5 hPa 0,0 l/m 0 min 0 min 33 W/m 22,5 km/h (4 Bft) 97,83 %
18.06.2021 20:56 30,3 C 28,9 C 26,7 C 54 % 1010,5 hPa 0,0 l/m 0 min 0 min 33 W/m 19,3 km/h (3 Bft) 97,87 %
18.06.2021 20:58 30,3 C 28,9 C 26,7 C 54 % 1010,6 hPa 0,0 l/m 0 min 0 min 32 W/m 19,3 km/h (3 Bft) 97,87 %
18.06.2021 21:00 30,2 C 28,9 C 26,7 C 54 % 1010,6 hPa 0,0 l/m 0 min 0 min 31 W/m 25,7 km/h (4 Bft) 95,74 %
18.06.2021 21:02 30,1 C 28,9 C 26,7 C 54 % 1010,7 hPa 0,0 l/m 0 min 0 min 30 W/m 16,1 km/h (3 Bft) 97,87 %
18.06.2021 21:04 30,1 C 28,9 C 26,7 C 54 % 1010,6 hPa 0,0 l/m 0 min 0 min 28 W/m 19,3 km/h (3 Bft) 97,87 %
18.06.2021 21:06 30,0 C 28,9 C 26,1 C 55 % 1010,6 hPa 0,0 l/m 0 min 0 min 26 W/m 9,7 km/h (2 Bft) 97,83 %
18.06.2021 21:08 30,0 C 28,9 C 26,1 C 55 % 1010,6 hPa 0,0 l/m 0 min 0 min 26 W/m 12,9 km/h (3 Bft) 95,74 %
18.06.2021 21:10 30,0 C 28,9 C 26,1 C 55 % 1010,6 hPa 0,0 l/m 0 min 0 min 24 W/m 9,7 km/h (2 Bft) 100,00 %
18.06.2021 21:12 29,9 C 28,3 C 26,1 C 55 % 1010,6 hPa 0,0 l/m 0 min 0 min 23 W/m 25,7 km/h (4 Bft) 100,00 %
18.06.2021 21:14 29,8 C 28,3 C 26,1 C 55 % 1010,6 hPa 0,0 l/m 0 min 0 min 21 W/m 22,5 km/h (4 Bft) 100,00 %
18.06.2021 21:16 29,8 C 28,3 C 26,1 C 56 % 1010,7 hPa 0,0 l/m 0 min 0 min 20 W/m 12,9 km/h (3 Bft) 97,87 %
18.06.2021 21:18 29,8 C 28,3 C 26,1 C 55 % 1010,6 hPa 0,0 l/m 0 min 0 min 18 W/m 22,5 km/h (4 Bft) 100,00 %
18.06.2021 21:20 29,7 C 28,3 C 26,1 C 56 % 1010,6 hPa 0,0 l/m 0 min 0 min 16 W/m 22,5 km/h (4 Bft) 100,00 %
18.06.2021 21:22 29,6 C 28,3 C 26,1 C 56 % 1010,7 hPa 0,0 l/m 0 min 0 min 15 W/m 22,5 km/h (4 Bft) 100,00 %
18.06.2021 21:24 29,6 C 28,3 C 26,1 C 56 % 1010,7 hPa 0,0 l/m 0 min 0 min 14 W/m 12,9 km/h (3 Bft) 100,00 %
18.06.2021 21:26 29,5 C 28,3 C 26,1 C 56 % 1010,7 hPa 0,0 l/m 0 min 0 min 13 W/m 12,9 km/h (3 Bft) 97,87 %
18.06.2021 21:28 29,5 C 28,3 C 25,6 C 57 % 1010,7 hPa 0,0 l/m 0 min 0 min 11 W/m 16,1 km/h (3 Bft) 100,00 %
18.06.2021 21:30 29,5 C 28,3 C 25,6 C 56 % 1010,7 hPa 0,0 l/m 0 min 0 min 10 W/m 25,7 km/h (4 Bft) 100,00 %
18.06.2021 21:32 29,4 C 28,3 C 25,6 C 57 % 1010,8 hPa 0,0 l/m 0 min 0 min 9 W/m 19,3 km/h (3 Bft) 100,00 %
18.06.2021 21:34 29,4 C 28,3 C 25,6 C 57 % 1010,8 hPa 0,0 l/m 0 min 0 min 8 W/m 16,1 km/h (3 Bft) 100,00 %
18.06.2021 21:36 29,3 C 27,8 C 25,6 C 57 % 1010,8 hPa 0,0 l/m 0 min 0 min 7 W/m 22,5 km/h (4 Bft) 100,00 %
18.06.2021 21:38 29,3 C 27,8 C 25,6 C 57 % 1010,8 hPa 0,0 l/m 0 min 0 min 5 W/m 12,9 km/h (3 Bft) 100,00 %
18.06.2021 21:40 29,3 C 27,8 C 25,6 C 57 % 1010,9 hPa 0,0 l/m 0 min 0 min 5 W/m 16,1 km/h (3 Bft) 100,00 %
18.06.2021 21:42 29,2 C 27,8 C 25,6 C 57 % 1010,8 hPa 0,0 l/m 0 min 0 min 5 W/m 12,9 km/h (3 Bft) 100,00 %
18.06.2021 21:44 29,1 C 27,8 C 25,6 C 58 % 1010,9 hPa 0,0 l/m 0 min 0 min 5 W/m 16,1 km/h (3 Bft) 100,00 %
18.06.2021 21:46 29,1 C 27,8 C 25,6 C 57 % 1010,9 hPa 0,0 l/m 0 min 0 min 1 W/m 19,3 km/h (3 Bft) 100,00 %
18.06.2021 21:48 29,0 C 27,8 C 25,6 C 58 % 1010,9 hPa 0,0 l/m 0 min 0 min 0 W/m 16,1 km/h (3 Bft) 100,00 %
18.06.2021 21:50 29,0 C 27,8 C 25,6 C 58 % 1011,0 hPa 0,0 l/m 0 min 0 min 0 W/m 12,9 km/h (3 Bft) 100,00 %
18.06.2021 21:52 29,0 C 27,8 C 25,0 C 58 % 1011,0 hPa 0,0 l/m 0 min 0 min 0 W/m 16,1 km/h (3 Bft) 100,00 %
18.06.2021 21:54 28,9 C 27,2 C 25,0 C 58 % 1011,0 hPa 0,0 l/m 0 min 0 min 0 W/m 19,3 km/h (3 Bft) 100,00 %
18.06.2021 21:56 28,9 C 27,2 C 25,0 C 58 % 1011,1 hPa 0,0 l/m 0 min 0 min 0 W/m 19,3 km/h (3 Bft) 100,00 %
18.06.2021 21:58 28,8 C 27,2 C 25,0 C 59 % 1011,1 hPa 0,0 l/m 0 min 0 min 0 W/m 12,9 km/h (3 Bft) 100,00 %
18.06.2021 22:00 28,8 C 27,2 C 25,0 C 59 % 1011,1 hPa 0,0 l/m 0 min 0 min 0 W/m 12,9 km/h (3 Bft) 100,00 %
18.06.2021 22:02 28,7 C 27,2 C 25,0 C 59 % 1011,1 hPa 0,0 l/m 0 min 0 min 0 W/m 12,9 km/h (3 Bft) 97,87 %
18.06.2021 22:04 28,6 C 27,2 C 25,0 C 60 % 1011,1 hPa 0,0 l/m 0 min 0 min 0 W/m 12,9 km/h (3 Bft) 97,87 %
18.06.2021 22:06 28,6 C 27,2 C 25,0 C 59 % 1011,1 hPa 0,0 l/m 0 min 0 min 0 W/m 16,1 km/h (3 Bft) 100,00 %
18.06.2021 22:08 28,6 C 27,2 C 25,0 C 60 % 1011,2 hPa 0,0 l/m 0 min 0 min 0 W/m 9,7 km/h (2 Bft) 100,00 %
18.06.2021 22:10 28,5 C 27,2 C 24,5 C 60 % 1011,2 hPa 0,0 l/m 0 min 0 min 0 W/m 12,9 km/h (3 Bft) 100,00 %
18.06.2021 22:12 28,5 C 27,2 C 24,5 C 60 % 1011,2 hPa 0,0 l/m 0 min 0 min 0 W/m 9,7 km/h (2 Bft) 95,74 %
18.06.2021 22:14 28,4 C 27,2 C 24,5 C 60 % 1011,2 hPa 0,0 l/m 0 min 0 min 0 W/m 9,7 km/h (2 Bft) 97,87 %
18.06.2021 22:16 28,4 C 26,7 C 24,5 C 61 % 1011,2 hPa 0,0 l/m 0 min 0 min 0 W/m 19,3 km/h (3 Bft) 95,74 %
18.06.2021 22:18 28,3 C 26,7 C 24,5 C 60 % 1011,3 hPa 0,0 l/m 0 min 0 min 0 W/m 16,1 km/h (3 Bft) 97,83 %
18.06.2021 22:20 28,2 C 26,7 C 24,5 C 61 % 1011,3 hPa 0,0 l/m 0 min 0 min 0 W/m 6,4 km/h (2 Bft) 97,87 %
18.06.2021 22:22 28,2 C 26,7 C 23,9 C 61 % 1011,3 hPa 0,0 l/m 0 min 0 min 0 W/m 9,7 km/h (2 Bft) 95,74 %
18.06.2021 22:24 28,1 C 26,7 C 23,9 C 62 % 1011,3 hPa 0,0 l/m 0 min 0 min 0 W/m 9,7 km/h (2 Bft) 97,87 %
18.06.2021 22:26 28,0 C 26,1 C 23,9 C 62 % 1011,4 hPa 0,0 l/m 0 min 0 min 0 W/m 9,7 km/h (2 Bft) 95,74 %
18.06.2021 22:28 28,0 C 26,1 C 23,9 C 62 % 1011,3 hPa 0,0 l/m 0 min 0 min 0 W/m 9,7 km/h (2 Bft) 95,74 %
18.06.2021 22:30 27,9 C 26,1 C 23,9 C 62 % 1011,4 hPa 0,0 l/m 0 min 0 min 0 W/m 6,4 km/h (2 Bft) 97,83 %
18.06.2021 22:32 27,9 C 26,1 C 23,4 C 64 % 1011,3 hPa 0,0 l/m 0 min 0 min 0 W/m 3,2 km/h (1 Bft) 97,87 %
18.06.2021 22:34 27,8 C 25,6 C 23,4 C 64 % 1011,4 hPa 0,0 l/m 0 min 0 min 0 W/m 3,2 km/h (1 Bft) 95,74 %
18.06.2021 22:36 27,7 C 25,6 C 23,4 C 63 % 1011,3 hPa 0,0 l/m 0 min 0 min 0 W/m 9,7 km/h (2 Bft) 97,87 %
18.06.2021 22:38 27,6 C 26,1 C 23,4 C 63 % 1011,3 hPa 0,0 l/m 0 min 0 min 0 W/m 6,4 km/h (2 Bft) 97,87 %
18.06.2021 22:40 27,5 C 26,1 C 23,4 C 63 % 1011,3 hPa 0,0 l/m 0 min 0 min 0 W/m 6,4 km/h (2 Bft) 97,87 %
18.06.2021 22:42 27,5 C 26,1 C 23,4 C 63 % 1011,3 hPa 0,0 l/m 0 min 0 min 0 W/m 12,9 km/h (3 Bft) 97,83 %
18.06.2021 22:44 27,4 C 26,1 C 23,4 C 64 % 1011,3 hPa 0,0 l/m 0 min 0 min 0 W/m 6,4 km/h (2 Bft) 95,74 %
18.06.2021 22:46 27,4 C 26,1 C 23,9 C 64 % 1011,3 hPa 0,0 l/m 0 min 0 min 0 W/m 9,7 km/h (2 Bft) 91,49 %
18.06.2021 22:48 27,4 C 26,1 C 23,9 C 64 % 1011,3 hPa 0,0 l/m 0 min 0 min 0 W/m 12,9 km/h (3 Bft) 95,74 %
18.06.2021 22:50 27,3 C 26,1 C 23,4 C 64 % 1011,3 hPa 0,0 l/m 0 min 0 min 0 W/m 6,4 km/h (2 Bft) 93,62 %
18.06.2021 22:52 27,3 C 26,1 C 23,4 C 64 % 1011,3 hPa 0,0 l/m 0 min 0 min 0 W/m 6,4 km/h (2 Bft) 95,74 %
18.06.2021 22:54 27,3 C 26,1 C 23,9 C 64 % 1011,3 hPa 0,0 l/m 0 min 0 min 0 W/m 9,7 km/h (2 Bft) 95,65 %
18.06.2021 22:56 27,3 C 26,1 C 23,9 C 64 % 1011,2 hPa 0,0 l/m 0 min 0 min 0 W/m 9,7 km/h (2 Bft) 97,87 %
18.06.2021 22:58 27,3 C 26,1 C 23,9 C 64 % 1011,2 hPa 0,0 l/m 0 min 0 min 0 W/m 12,9 km/h (3 Bft) 97,87 %
18.06.2021 23:00 27,3 C 26,1 C 23,4 C 64 % 1011,2 hPa 0,0 l/m 0 min 0 min 0 W/m 12,9 km/h (3 Bft) 91,49 %
18.06.2021 23:02 27,2 C 26,1 C 23,9 C 64 % 1011,3 hPa 0,0 l/m 0 min 0 min 0 W/m 9,7 km/h (2 Bft) 97,87 %
18.06.2021 23:04 27,2 C 26,1 C 23,4 C 64 % 1011,3 hPa 0,0 l/m 0 min 0 min 0 W/m 6,4 km/h (2 Bft) 93,62 %
18.06.2021 23:06 27,2 C 26,1 C 23,4 C 64 % 1011,3 hPa 0,0 l/m 0 min 0 min 0 W/m 12,9 km/h (3 Bft) 97,83 %
18.06.2021 23:08 27,1 C 26,1 C 23,4 C 65 % 1011,3 hPa 0,0 l/m 0 min 0 min 0 W/m 9,7 km/h (2 Bft) 97,87 %
18.06.2021 23:10 27,1 C 26,1 C 23,4 C 64 % 1011,3 hPa 0,0 l/m 0 min 0 min 0 W/m 6,4 km/h (2 Bft) 97,67 %
18.06.2021 23:12 27,1 C 26,1 C 23,4 C 65 % 1011,4 hPa 0,0 l/m 0 min 0 min 0 W/m 3,2 km/h (1 Bft) 97,87 %
18.06.2021 23:14 27,0 C 26,1 C 23,4 C 65 % 1011,5 hPa 0,0 l/m 0 min 0 min 0 W/m 6,4 km/h (2 Bft) 97,87 %
18.06.2021 23:16 27,0 C 26,1 C 23,4 C 65 % 1011,5 hPa 0,0 l/m 0 min 0 min 0 W/m 3,2 km/h (1 Bft) 97,87 %
18.06.2021 23:18 27,0 C 26,1 C 23,4 C 65 % 1011,5 hPa 0,0 l/m 0 min 0 min 0 W/m 3,2 km/h (1 Bft) 97,83 %
18.06.2021 23:20 27,0 C 26,1 C 23,4 C 65 % 1011,5 hPa 0,0 l/m 0 min 0 min 0 W/m 6,4 km/h (2 Bft) 96,08 %
18.06.2021 23:22 27,0 C 25,6 C 23,4 C 65 % 1011,6 hPa 0,0 l/m 0 min 0 min 0 W/m 6,4 km/h (2 Bft) 95,74 %
18.06.2021 23:24 27,0 C 26,1 C 23,4 C 65 % 1011,6 hPa 0,0 l/m 0 min 0 min 0 W/m 9,7 km/h (2 Bft) 95,74 %
18.06.2021 23:26 27,0 C 26,1 C 23,4 C 65 % 1011,7 hPa 0,0 l/m 0 min 0 min 0 W/m 6,4 km/h (2 Bft) 95,74 %
18.06.2021 23:28 27,0 C 25,6 C 23,4 C 65 % 1011,8 hPa 0,0 l/m 0 min 0 min 0 W/m 12,9 km/h (3 Bft) 95,65 %
18.06.2021 23:30 27,0 C 26,1 C 23,4 C 65 % 1011,9 hPa 0,0 l/m 0 min 0 min 0 W/m 6,4 km/h (2 Bft) 95,74 %
18.06.2021 23:32 26,9 C 25,6 C 23,4 C 65 % 1011,9 hPa 0,0 l/m 0 min 0 min 0 W/m 12,9 km/h (3 Bft) 91,49 %
18.06.2021 23:34 26,9 C 25,6 C 23,4 C 66 % 1011,9 hPa 0,0 l/m 0 min 0 min 0 W/m 3,2 km/h (1 Bft) 95,74 %
18.06.2021 23:36 26,9 C 25,6 C 23,4 C 66 % 1012,0 hPa 0,0 l/m 0 min 0 min 0 W/m 3,2 km/h (1 Bft) 93,62 %
18.06.2021 23:38 26,9 C 25,6 C 23,4 C 66 % 1012,1 hPa 0,0 l/m 0 min 0 min 0 W/m 3,2 km/h (1 Bft) 95,74 %
18.06.2021 23:40 26,8 C 25,6 C 22,8 C 66 % 1012,1 hPa 0,0 l/m 0 min 0 min 0 W/m 3,2 km/h (1 Bft) 97,83 %
18.06.2021 23:42 26,8 C 25,6 C 22,8 C 66 % 1012,2 hPa 0,0 l/m 0 min 0 min 0 W/m 6,4 km/h (2 Bft) 97,87 %
18.06.2021 23:44 26,8 C 25,6 C 22,8 C 67 % 1012,2 hPa 0,0 l/m 0 min 0 min 0 W/m 6,4 km/h (2 Bft) 97,87 %
18.06.2021 23:46 26,7 C 25,6 C 22,8 C 67 % 1012,2 hPa 0,0 l/m 0 min 0 min 0 W/m 3,2 km/h (1 Bft) 97,87 %
18.06.2021 23:48 26,6 C 25,6 C 22,8 C 67 % 1012,3 hPa 0,0 l/m 0 min 0 min 0 W/m 9,7 km/h (2 Bft) 97,87 %
18.06.2021 23:50 26,6 C 25,6 C 22,8 C 67 % 1012,4 hPa 0,0 l/m 0 min 0 min 0 W/m 12,9 km/h (3 Bft) 97,87 %
18.06.2021 23:52 26,6 C 25,0 C 22,8 C 67 % 1012,4 hPa 0,0 l/m 0 min 0 min 0 W/m 9,7 km/h (2 Bft) 97,83 %
18.06.2021 23:54 26,5 C 25,0 C 22,8 C 67 % 1012,4 hPa 0,0 l/m 0 min 0 min 0 W/m 6,4 km/h (2 Bft) 95,74 %
18.06.2021 23:56 26,5 C 25,0 C 22,8 C 67 % 1012,4 hPa 0,0 l/m 0 min 0 min 0 W/m 6,4 km/h (2 Bft) 97,87 %
18.06.2021 23:58 26,5 C 25,0 C 22,8 C 67 % 1012,4 hPa 0,0 l/m 0 min 0 min 0 W/m 12,9 km/h (3 Bft) 97,87 %
_ Min-Zeit 05:16 04:10 04:14 16:30 18:34 - - - - 03:40 12:44
Minimum _ 21,8 C 21,1 C 18,9 C 45 % 1009,5 hPa - - - - 0,0 km/h (0 Bft) 87,23 %
_ Max-Zeit 15:40 16:24 13:08 06:54 08:42 17:48 12:08 17:44 13:16 20:18 00:00
Maximum _ 34,6 C 37,8 C 39,5 C 87 % 1013,3 hPa 0,2 l/m 4 min 2 min 1041 W/m 35,4 km/h
S-SW (5 Bft)
100,00 %
Durchschnitt _ 28,0 C 28,2 C 25,6 C 67 % 1011,9 hPa #0,2 l/m #8:50 h #14 min. 390 W/m 9,9 km/h (2 Bft) 97,50 %
© 2021 W. Hausmann